Time,TemperatureF,DewpointF,PressureIn,WindDirection,WindDirectionDegrees,WindSpeedMPH,WindSpeedGustMPH,Humidity,HourlyPrecipIn,Conditions,Clouds,dailyrainin,SolarRadiationWatts/m^2,SoftwareType,DateUTC
2013-08-17 00:02:00,64.8,60.8,30.08,SE,140,1.0,3.0,87,0.00,,,0.00,0,WeatherCatV1.15B25,2013-08-17 05:02:00,
2013-08-17 00:03:00,64.8,60.8,30.08,SE,140,2.0,9.0,87,0.00,,,0.00,0,WeatherCatV1.15B25,2013-08-17 05:03:00,
2013-08-17 00:04:00,64.7,60.7,30.08,SE,140,3.0,9.0,87,0.00,,,0.00,0,WeatherCatV1.15B25,2013-08-17 05:04:00,
2013-08-17 00:07:00,64.6,60.6,30.08,SE,141,0.0,10.0,87,0.00,,,0.00,0,WeatherCatV1.15B25,2013-08-17 05:07:00,
2013-08-17 00:08:00,64.6,60.6,30.08,SE,141,2.0,5.0,87,0.00,,,0.00,0,WeatherCatV1.15B25,2013-08-17 05:08:00,
2013-08-17 00:09:00,64.5,60.5,30.08,SE,140,3.0,9.0,87,0.00,,,0.00,0,WeatherCatV1.15B25,2013-08-17 05:09:00,
2013-08-17 00:12:00,64.4,60.8,30.08,SE,138,0.0,10.0,88,0.00,,,0.00,0,WeatherCatV1.15B25,2013-08-17 05:12:00,
2013-08-17 00:13:00,64.4,60.8,30.08,SE,139,1.0,10.0,88,0.00,,,0.00,0,WeatherCatV1.15B25,2013-08-17 05:13:00,
2013-08-17 00:14:00,64.3,60.7,30.08,SE,139,4.0,6.0,88,0.00,,,0.00,0,WeatherCatV1.15B25,2013-08-17 05:14:00,
2013-08-17 00:18:00,64.2,60.6,30.08,SE,138,0.0,2.0,88,0.00,,,0.00,0,WeatherCatV1.15B25,2013-08-17 05:18:00,
2013-08-17 00:19:00,64.2,60.6,30.08,SE,138,1.0,5.0,88,0.00,,,0.00,0,WeatherCatV1.15B25,2013-08-17 05:19:00,
2013-08-17 00:23:00,64.1,60.5,30.08,SE,138,5.0,5.0,88,0.00,,,0.00,0,WeatherCatV1.15B25,2013-08-17 05:23:00,
2013-08-17 00:25:00,64.1,60.5,30.08,SE,139,0.0,4.0,88,0.00,,,0.00,0,WeatherCatV1.15B25,2013-08-17 05:25:00,
2013-08-17 00:28:00,64.1,60.5,30.08,SE,139,3.0,3.0,88,0.00,,,0.00,0,WeatherCatV1.15B25,2013-08-17 05:28:00,
2013-08-17 00:29:00,64.0,60.4,30.08,SE,139,0.0,3.0,88,0.00,,,0.00,0,WeatherCatV1.15B25,2013-08-17 05:29:00,
2013-08-17 00:30:00,64.1,60.5,30.09,SE,139,4.0,5.0,88,0.00,,,0.00,0,WeatherCatV1.15B25,2013-08-17 05:30:00,
2013-08-17 00:33:00,64.0,60.4,30.08,SE,138,3.0,6.0,88,0.00,,,0.00,0,WeatherCatV1.15B25,2013-08-17 05:33:00,
2013-08-17 00:34:00,64.0,60.4,30.08,SE,139,0.0,4.0,88,0.00,,,0.00,0,WeatherCatV1.15B25,2013-08-17 05:34:00,
2013-08-17 00:35:00,63.9,60.3,30.08,SE,138,4.0,5.0,88,0.00,,,0.00,0,WeatherCatV1.15B25,2013-08-17 05:35:00,
2013-08-17 00:38:00,63.9,60.6,30.08,SE,138,2.0,5.0,89,0.00,,,0.00,0,WeatherCatV1.15B25,2013-08-17 05:38:00,
2013-08-17 00:39:00,63.9,60.6,30.08,SE,140,9.0,9.0,89,0.00,,,0.00,0,WeatherCatV1.15B25,2013-08-17 05:39:00,
2013-08-17 00:40:00,63.8,60.5,30.08,SE,144,0.0,9.0,89,0.00,,,0.00,0,WeatherCatV1.15B25,2013-08-17 05:40:00,
2013-08-17 00:43:00,63.8,60.5,30.08,SE,144,5.0,5.0,89,0.00,,,0.00,0,WeatherCatV1.15B25,2013-08-17 05:43:00,
2013-08-17 00:44:00,63.8,60.5,30.08,SE,144,0.0,5.0,89,0.00,,,0.00,0,WeatherCatV1.15B25,2013-08-17 05:44:00,
2013-08-17 00:45:00,63.8,60.5,30.08,SE,144,0.0,3.0,89,0.00,,,0.00,0,WeatherCatV1.15B25,2013-08-17 05:45:00,
2013-08-17 00:48:00,63.8,60.5,30.08,SE,144,5.0,7.0,89,0.00,,,0.00,0,WeatherCatV1.15B25,2013-08-17 05:48:00,
2013-08-17 00:49:00,63.8,60.5,30.08,SE,144,3.0,7.0,89,0.00,,,0.00,0,WeatherCatV1.15B25,2013-08-17 05:49:00,
2013-08-17 00:50:00,63.8,60.5,30.09,SE,144,3.0,6.0,89,0.00,,,0.00,0,WeatherCatV1.15B25,2013-08-17 05:50:00,
2013-08-17 00:53:00,63.7,60.4,30.09,SE,144,2.0,7.0,89,0.00,,,0.00,0,WeatherCatV1.15B25,2013-08-17 05:53:00,
2013-08-17 00:54:00,63.7,60.4,30.08,SE,144,0.0,7.0,89,0.00,,,0.00,0,WeatherCatV1.15B25,2013-08-17 05:54:00,
2013-08-17 00:56:00,63.7,60.4,30.09,SE,144,4.0,5.0,89,0.00,,,0.00,0,WeatherCatV1.15B25,2013-08-17 05:56:00,
2013-08-17 00:58:00,63.7,60.4,30.08,SE,144,7.0,7.0,89,0.00,,,0.00,0,WeatherCatV1.15B25,2013-08-17 05:58:00,
2013-08-17 00:59:00,63.7,60.4,30.08,SE,144,0.0,7.0,89,0.00,,,0.00,0,WeatherCatV1.15B25,2013-08-17 05:59:00,
2013-08-17 01:00:00,63.7,60.4,30.08,SE,144,3.0,7.0,89,0.00,,,0.00,0,WeatherCatV1.15B25,2013-08-17 06:00:00,
2013-08-17 01:01:00,63.7,60.4,30.08,SE,144,2.0,5.0,89,0.00,,,0.00,0,WeatherCatV1.15B25,2013-08-17 06:01:00,
2013-08-17 01:04:00,63.7,60.4,30.08,SE,144,4.0,6.0,89,0.00,,,0.00,0,WeatherCatV1.15B25,2013-08-17 06:04:00,
2013-08-17 01:05:00,63.7,60.4,30.08,SE,144,1.0,6.0,89,0.00,,,0.00,0,WeatherCatV1.15B25,2013-08-17 06:05:00,
2013-08-17 01:06:00,63.7,60.4,30.08,SE,144,0.0,5.0,89,0.00,,,0.00,0,WeatherCatV1.15B25,2013-08-17 06:06:00,
2013-08-17 01:09:00,63.6,60.3,30.08,SE,144,3.0,5.0,89,0.00,,,0.00,0,WeatherCatV1.15B25,2013-08-17 06:09:00,
2013-08-17 01:10:00,63.6,60.3,30.08,SE,144,1.0,5.0,89,0.00,,,0.00,0,WeatherCatV1.15B25,2013-08-17 06:10:00,
2013-08-17 01:11:00,63.6,60.3,30.08,SE,144,1.0,3.0,89,0.00,,,0.00,0,WeatherCatV1.15B25,2013-08-17 06:11:00,
2013-08-17 01:14:00,63.6,60.3,30.08,SE,144,3.0,7.0,89,0.00,,,0.00,0,WeatherCatV1.15B25,2013-08-17 06:14:00,
2013-08-17 01:15:00,63.5,60.2,30.08,SE,144,5.0,5.0,89,0.00,,,0.00,0,WeatherCatV1.15B25,2013-08-17 06:15:00,
2013-08-17 01:16:00,63.5,60.2,30.09,SE,144,1.0,5.0,89,0.00,,,0.00,0,WeatherCatV1.15B25,2013-08-17 06:16:00,
2013-08-17 01:19:00,63.5,60.2,30.09,SE,144,0.0,6.0,89,0.00,,,0.00,0,WeatherCatV1.15B25,2013-08-17 06:19:00,
2013-08-17 01:20:00,63.4,60.1,30.09,SE,144,2.0,6.0,89,0.00,,,0.00,0,WeatherCatV1.15B25,2013-08-17 06:20:00,
2013-08-17 01:22:00,63.4,60.1,30.08,SE,141,9.0,10.0,89,0.00,,,0.00,0,WeatherCatV1.15B25,2013-08-17 06:22:00,
2013-08-17 01:24:00,63.4,60.1,30.09,SE,141,3.0,6.0,89,0.00,,,0.00,0,WeatherCatV1.15B25,2013-08-17 06:24:00,
2013-08-17 01:25:00,63.3,60.0,30.09,SE,141,3.0,6.0,89,0.00,,,0.00,0,WeatherCatV1.15B25,2013-08-17 06:25:00,
2013-08-17 01:27:00,63.3,60.0,30.08,SE,140,0.0,5.0,89,0.00,,,0.00,0,WeatherCatV1.15B25,2013-08-17 06:27:00,
2013-08-17 01:29:00,63.2,59.9,30.08,SE,138,7.0,8.0,89,0.00,,,0.00,0,WeatherCatV1.15B25,2013-08-17 06:29:00,
2013-08-17 01:30:00,63.2,59.9,30.08,SE,140,2.0,9.0,89,0.00,,,0.00,0,WeatherCatV1.15B25,2013-08-17 06:30:00,
2013-08-17 01:31:00,63.2,59.9,30.08,SE,140,2.0,9.0,89,0.00,,,0.00,0,WeatherCatV1.15B25,2013-08-17 06:31:00,
2013-08-17 01:32:00,63.1,59.8,30.08,SE,140,4.0,8.0,89,0.00,,,0.00,0,WeatherCatV1.15B25,2013-08-17 06:32:00,
2013-08-17 01:34:00,63.1,59.8,30.09,SE,140,4.0,6.0,89,0.00,,,0.00,0,WeatherCatV1.15B25,2013-08-17 06:34:00,
2013-08-17 01:35:00,63.1,59.8,30.09,SE,140,4.0,6.0,89,0.00,,,0.00,0,WeatherCatV1.15B25,2013-08-17 06:35:00,
2013-08-17 01:36:00,63.1,59.8,30.08,SE,140,0.0,6.0,89,0.00,,,0.00,0,WeatherCatV1.15B25,2013-08-17 06:36:00,
2013-08-17 01:37:00,63.0,59.7,30.08,SE,140,0.0,2.0,89,0.00,,,0.00,0,WeatherCatV1.15B25,2013-08-17 06:37:00,
2013-08-17 01:39:00,63.0,59.7,30.08,SE,140,3.0,3.0,89,0.00,,,0.00,0,WeatherCatV1.15B25,2013-08-17 06:39:00,
2013-08-17 01:40:00,63.0,59.7,30.08,SE,140,4.0,5.0,89,0.00,,,0.00,0,WeatherCatV1.15B25,2013-08-17 06:40:00,
2013-08-17 01:41:00,63.0,59.7,30.09,SE,140,0.0,6.0,89,0.00,,,0.00,0,WeatherCatV1.15B25,2013-08-17 06:41:00,
2013-08-17 01:42:00,63.0,59.7,30.09,SE,140,2.0,6.0,89,0.00,,,0.00,0,WeatherCatV1.15B25,2013-08-17 06:42:00,
2013-08-17 01:44:00,63.0,60.0,30.09,SE,140,0.0,6.0,90,0.00,,,0.00,0,WeatherCatV1.15B25,2013-08-17 06:44:00,
2013-08-17 01:45:00,63.0,60.0,30.09,SE,140,5.0,6.0,90,0.00,,,0.00,0,WeatherCatV1.15B25,2013-08-17 06:45:00,
2013-08-17 01:47:00,62.9,59.9,30.08,SE,140,0.0,4.0,90,0.00,,,0.00,0,WeatherCatV1.15B25,2013-08-17 06:47:00,
2013-08-17 01:49:00,62.9,59.9,30.08,SE,139,0.0,9.0,90,0.00,,,0.00,0,WeatherCatV1.15B25,2013-08-17 06:49:00,
2013-08-17 01:50:00,62.9,59.9,30.08,SE,139,0.0,9.0,90,0.00,,,0.00,0,WeatherCatV1.15B25,2013-08-17 06:50:00,
2013-08-17 01:52:00,62.9,59.9,30.08,SE,139,4.0,8.0,90,0.00,,,0.00,0,WeatherCatV1.15B25,2013-08-17 06:52:00,
2013-08-17 01:53:00,62.8,59.8,30.08,SE,140,2.0,8.0,90,0.00,,,0.00,0,WeatherCatV1.15B25,2013-08-17 06:53:00,
2013-08-17 01:55:00,62.8,59.8,30.08,SE,140,1.0,4.0,90,0.00,,,0.00,0,WeatherCatV1.15B25,2013-08-17 06:55:00,
2013-08-17 01:57:00,62.7,59.7,30.08,SE,140,4.0,6.0,90,0.00,,,0.00,0,WeatherCatV1.15B25,2013-08-17 06:57:00,
2013-08-17 01:58:00,62.7,59.7,30.08,SE,140,1.0,4.0,90,0.00,,,0.00,0,WeatherCatV1.15B25,2013-08-17 06:58:00,
2013-08-17 02:00:00,62.7,59.7,30.08,SE,140,0.0,6.0,90,0.00,,,0.00,0,WeatherCatV1.15B25,2013-08-17 07:00:00,
2013-08-17 02:01:00,62.7,59.7,30.08,SE,140,4.0,6.0,90,0.00,,,0.00,0,WeatherCatV1.15B25,2013-08-17 07:01:00,
2013-08-17 02:02:00,62.7,59.7,30.08,SE,140,0.0,3.0,90,0.00,,,0.00,0,WeatherCatV1.15B25,2013-08-17 07:02:00,
2013-08-17 02:03:00,62.6,59.6,30.08,SE,140,0.0,2.0,90,0.00,,,0.00,0,WeatherCatV1.15B25,2013-08-17 07:03:00,
2013-08-17 02:05:00,62.6,59.6,30.08,SE,140,1.0,5.0,90,0.00,,,0.00,0,WeatherCatV1.15B25,2013-08-17 07:05:00,
2013-08-17 02:06:00,62.6,59.6,30.08,SE,140,0.0,5.0,90,0.00,,,0.00,0,WeatherCatV1.15B25,2013-08-17 07:06:00,
2013-08-17 02:07:00,62.6,59.6,30.08,SE,140,0.0,0.0,90,0.00,,,0.00,0,WeatherCatV1.15B25,2013-08-17 07:07:00,
2013-08-17 02:08:00,62.6,60.2,30.08,SE,140,0.0,0.0,92,0.00,,,0.00,0,WeatherCatV1.15B25,2013-08-17 07:08:00,
2013-08-17 02:09:00,62.6,60.2,30.08,SE,140,4.0,6.0,92,0.00,,,0.00,0,WeatherCatV1.15B25,2013-08-17 07:09:00,
2013-08-17 02:10:00,62.6,59.6,30.08,SE,140,2.0,4.0,90,0.00,,,0.00,0,WeatherCatV1.15B25,2013-08-17 07:10:00,
2013-08-17 02:11:00,62.5,59.5,30.08,SE,140,0.0,4.0,90,0.00,,,0.00,0,WeatherCatV1.15B25,2013-08-17 07:11:00,
2013-08-17 02:12:00,62.5,59.5,30.08,SE,140,0.0,4.0,90,0.00,,,0.00,0,WeatherCatV1.15B25,2013-08-17 07:12:00,
2013-08-17 02:14:00,62.5,59.5,30.08,SE,140,0.0,6.0,90,0.00,,,0.00,0,WeatherCatV1.15B25,2013-08-17 07:14:00,
2013-08-17 02:15:00,62.5,59.5,30.08,SE,140,0.0,2.0,90,0.00,,,0.00,0,WeatherCatV1.15B25,2013-08-17 07:15:00,
2013-08-17 02:16:00,62.4,59.4,30.08,SE,140,0.0,4.0,90,0.00,,,0.00,0,WeatherCatV1.15B25,2013-08-17 07:16:00,
2013-08-17 02:18:00,62.4,59.4,30.08,SE,140,1.0,5.0,90,0.00,,,0.00,0,WeatherCatV1.15B25,2013-08-17 07:18:00,
2013-08-17 02:19:00,62.4,59.4,30.08,SE,140,0.0,5.0,90,0.00,,,0.00,0,WeatherCatV1.15B25,2013-08-17 07:19:00,
2013-08-17 02:20:00,62.3,59.3,30.08,SE,140,0.0,3.0,90,0.00,,,0.00,0,WeatherCatV1.15B25,2013-08-17 07:20:00,
2013-08-17 02:21:00,62.3,59.6,30.08,SE,140,0.0,1.0,91,0.00,,,0.00,0,WeatherCatV1.15B25,2013-08-17 07:21:00,
2013-08-17 02:23:00,62.2,59.5,30.08,SE,140,0.0,5.0,91,0.00,,,0.00,0,WeatherCatV1.15B25,2013-08-17 07:23:00,
2013-08-17 02:24:00,62.2,59.5,30.08,SE,140,4.0,6.0,91,0.00,,,0.00,0,WeatherCatV1.15B25,2013-08-17 07:24:00,
2013-08-17 02:25:00,62.2,59.5,30.08,SE,140,0.0,6.0,91,0.00,,,0.00,0,WeatherCatV1.15B25,2013-08-17 07:25:00,
2013-08-17 02:27:00,62.2,59.5,30.08,SE,140,3.0,5.0,91,0.00,,,0.00,0,WeatherCatV1.15B25,2013-08-17 07:27:00,
2013-08-17 02:28:00,62.1,59.4,30.08,SE,140,2.0,4.0,91,0.00,,,0.00,0,WeatherCatV1.15B25,2013-08-17 07:28:00,
2013-08-17 02:29:00,62.1,59.4,30.08,SE,140,0.0,4.0,91,0.00,,,0.00,0,WeatherCatV1.15B25,2013-08-17 07:29:00,
2013-08-17 02:31:00,62.1,59.4,30.08,SE,141,6.0,6.0,91,0.00,,,0.00,0,WeatherCatV1.15B25,2013-08-17 07:31:00,
2013-08-17 02:32:00,62.0,59.3,30.08,SE,141,1.0,6.0,91,0.00,,,0.00,0,WeatherCatV1.15B25,2013-08-17 07:32:00,
2013-08-17 02:33:00,62.0,59.3,30.08,SE,141,0.0,3.0,91,0.00,,,0.00,0,WeatherCatV1.15B25,2013-08-17 07:33:00,
2013-08-17 02:34:00,62.0,59.3,30.08,SE,141,0.0,2.0,91,0.00,,,0.00,0,WeatherCatV1.15B25,2013-08-17 07:34:00,
2013-08-17 02:36:00,61.9,59.2,30.08,SE,141,0.0,0.0,91,0.00,,,0.00,0,WeatherCatV1.15B25,2013-08-17 07:36:00,
2013-08-17 02:37:00,61.9,59.2,30.08,SE,141,2.0,3.0,91,0.00,,,0.00,0,WeatherCatV1.15B25,2013-08-17 07:37:00,
2013-08-17 02:38:00,61.9,59.2,30.08,SE,141,1.0,4.0,91,0.00,,,0.00,0,WeatherCatV1.15B25,2013-08-17 07:38:00,
2013-08-17 02:39:00,61.9,59.2,30.08,SE,141,1.0,4.0,91,0.00,,,0.00,0,WeatherCatV1.15B25,2013-08-17 07:39:00,
2013-08-17 02:41:00,61.8,59.1,30.08,SE,141,2.0,4.0,91,0.00,,,0.00,0,WeatherCatV1.15B25,2013-08-17 07:41:00,
2013-08-17 02:42:00,61.8,59.1,30.08,SE,141,3.0,4.0,91,0.00,,,0.00,0,WeatherCatV1.15B25,2013-08-17 07:42:00,
2013-08-17 02:44:00,61.8,59.1,30.08,SE,141,4.0,7.0,91,0.00,,,0.00,0,WeatherCatV1.15B25,2013-08-17 07:44:00,
2013-08-17 02:45:00,61.8,59.1,30.08,SE,141,0.0,7.0,91,0.00,,,0.00,0,WeatherCatV1.15B25,2013-08-17 07:45:00,
2013-08-17 02:47:00,61.8,59.1,30.08,SE,141,0.0,2.0,91,0.00,,,0.00,0,WeatherCatV1.15B25,2013-08-17 07:47:00,
2013-08-17 02:49:00,61.8,59.1,30.08,SE,141,2.0,4.0,91,0.00,,,0.00,0,WeatherCatV1.15B25,2013-08-17 07:49:00,
2013-08-17 02:50:00,61.8,59.1,30.08,SE,141,0.0,4.0,91,0.00,,,0.00,0,WeatherCatV1.15B25,2013-08-17 07:50:00,
2013-08-17 02:52:00,61.8,59.4,30.08,SE,141,1.0,3.0,92,0.00,,,0.00,0,WeatherCatV1.15B25,2013-08-17 07:52:00,
2013-08-17 02:54:00,61.7,59.3,30.08,SE,141,4.0,4.0,92,0.00,,,0.00,0,WeatherCatV1.15B25,2013-08-17 07:54:00,
2013-08-17 02:55:00,61.7,59.3,30.08,SE,142,0.0,4.0,92,0.00,,,0.00,0,WeatherCatV1.15B25,2013-08-17 07:55:00,
2013-08-17 02:57:00,61.7,59.3,30.08,SE,141,4.0,5.0,92,0.00,,,0.00,0,WeatherCatV1.15B25,2013-08-17 07:57:00,
2013-08-17 02:59:00,61.6,59.2,30.08,SE,142,0.0,5.0,92,0.00,,,0.00,0,WeatherCatV1.15B25,2013-08-17 07:59:00,
2013-08-17 03:00:00,61.6,59.2,30.08,SE,141,0.0,6.0,92,0.00,,,0.00,0,WeatherCatV1.15B25,2013-08-17 08:00:00,
2013-08-17 03:02:00,61.6,59.2,30.08,SE,142,0.0,2.0,92,0.00,,,0.00,0,WeatherCatV1.15B25,2013-08-17 08:02:00,
2013-08-17 03:04:00,61.6,59.2,30.08,SE,141,1.0,1.0,92,0.00,,,0.00,0,WeatherCatV1.15B25,2013-08-17 08:04:00,
2013-08-17 03:05:00,61.6,59.2,30.08,SE,142,4.0,5.0,92,0.00,,,0.00,0,WeatherCatV1.15B25,2013-08-17 08:05:00,
2013-08-17 03:07:00,61.6,59.2,30.08,SE,142,0.0,3.0,92,0.00,,,0.00,0,WeatherCatV1.15B25,2013-08-17 08:07:00,
2013-08-17 03:08:00,61.6,59.2,30.08,SE,142,2.0,3.0,92,0.00,,,0.00,0,WeatherCatV1.15B25,2013-08-17 08:08:00,
2013-08-17 03:09:00,61.6,59.2,30.08,SE,142,0.0,4.0,92,0.00,,,0.00,0,WeatherCatV1.15B25,2013-08-17 08:09:00,
2013-08-17 03:10:00,61.6,59.2,30.08,SE,142,0.0,4.0,92,0.00,,,0.00,0,WeatherCatV1.15B25,2013-08-17 08:10:00,
2013-08-17 03:12:00,61.5,59.2,30.08,SE,142,1.0,1.0,92,0.00,,,0.00,0,WeatherCatV1.15B25,2013-08-17 08:12:00,
2013-08-17 03:13:00,61.5,59.2,30.08,SE,141,4.0,5.0,92,0.00,,,0.00,0,WeatherCatV1.15B25,2013-08-17 08:13:00,
2013-08-17 03:14:00,61.5,59.2,30.08,SE,142,2.0,5.0,92,0.00,,,0.00,0,WeatherCatV1.15B25,2013-08-17 08:14:00,
2013-08-17 03:15:00,61.5,59.2,30.08,SE,141,0.0,3.0,92,0.00,,,0.00,0,WeatherCatV1.15B25,2013-08-17 08:15:00,
2013-08-17 03:17:00,61.5,59.2,30.08,SE,142,0.0,4.0,92,0.00,,,0.00,0,WeatherCatV1.15B25,2013-08-17 08:17:00,
2013-08-17 03:18:00,61.5,59.2,30.08,SE,142,0.0,4.0,92,0.00,,,0.00,0,WeatherCatV1.15B25,2013-08-17 08:18:00,
2013-08-17 03:19:00,61.4,59.1,30.08,SE,142,1.0,6.0,92,0.00,,,0.00,0,WeatherCatV1.15B25,2013-08-17 08:19:00,
2013-08-17 03:20:00,61.5,59.2,30.08,SE,141,0.0,6.0,92,0.00,,,0.00,0,WeatherCatV1.15B25,2013-08-17 08:20:00,
2013-08-17 03:23:00,61.4,59.1,30.08,SE,141,3.0,3.0,92,0.00,,,0.00,0,WeatherCatV1.15B25,2013-08-17 08:23:00,
2013-08-17 03:24:00,61.4,59.1,30.08,SE,142,0.0,5.0,92,0.00,,,0.00,0,WeatherCatV1.15B25,2013-08-17 08:24:00,
2013-08-17 03:25:00,61.4,59.1,30.08,SE,142,0.0,1.0,92,0.00,,,0.00,0,WeatherCatV1.15B25,2013-08-17 08:25:00,
2013-08-17 03:28:00,61.4,59.1,30.08,SE,142,2.0,3.0,92,0.00,,,0.00,0,WeatherCatV1.15B25,2013-08-17 08:28:00,
2013-08-17 03:29:00,61.4,59.1,30.08,SE,141,0.0,4.0,92,0.00,,,0.00,0,WeatherCatV1.15B25,2013-08-17 08:29:00,
2013-08-17 03:30:00,61.3,59.0,30.08,SE,142,0.0,2.0,92,0.00,,,0.00,0,WeatherCatV1.15B25,2013-08-17 08:30:00,
2013-08-17 03:31:00,61.3,59.0,30.08,SE,142,0.0,2.0,92,0.00,,,0.00,0,WeatherCatV1.15B25,2013-08-17 08:31:00,
2013-08-17 03:33:00,61.3,59.0,30.08,SE,142,2.0,2.0,92,0.00,,,0.00,0,WeatherCatV1.15B25,2013-08-17 08:33:00,
2013-08-17 03:35:00,61.3,59.0,30.08,SE,142,0.0,2.0,92,0.00,,,0.00,0,WeatherCatV1.15B25,2013-08-17 08:35:00,
2013-08-17 03:36:00,61.3,59.0,30.08,SE,142,0.0,0.0,92,0.00,,,0.00,0,WeatherCatV1.15B25,2013-08-17 08:36:00,
2013-08-17 03:38:00,61.2,58.9,30.08,SE,142,3.0,4.0,92,0.00,,,0.00,0,WeatherCatV1.15B25,2013-08-17 08:38:00,
2013-08-17 03:40:00,61.2,58.9,30.08,SE,142,3.0,4.0,92,0.00,,,0.00,0,WeatherCatV1.15B25,2013-08-17 08:40:00,
2013-08-17 03:41:00,61.2,58.9,30.08,SE,142,0.0,4.0,92,0.00,,,0.00,0,WeatherCatV1.15B25,2013-08-17 08:41:00,
2013-08-17 03:43:00,61.2,58.9,30.08,SE,141,0.0,4.0,92,0.00,,,0.00,0,WeatherCatV1.15B25,2013-08-17 08:43:00,
2013-08-17 03:45:00,61.2,58.9,30.08,SE,142,2.0,3.0,92,0.00,,,0.00,0,WeatherCatV1.15B25,2013-08-17 08:45:00,
2013-08-17 03:46:00,61.2,58.9,30.08,SE,141,2.0,4.0,92,0.00,,,0.00,0,WeatherCatV1.15B25,2013-08-17 08:46:00,
2013-08-17 03:48:00,61.2,58.9,30.08,SE,142,4.0,4.0,92,0.00,,,0.00,0,WeatherCatV1.15B25,2013-08-17 08:48:00,
2013-08-17 03:50:00,61.2,58.9,30.08,SE,142,1.0,4.0,92,0.00,,,0.00,0,WeatherCatV1.15B25,2013-08-17 08:50:00,
2013-08-17 03:51:00,61.2,58.9,30.08,SE,141,3.0,3.0,92,0.00,,,0.00,0,WeatherCatV1.15B25,2013-08-17 08:51:00,
2013-08-17 03:52:00,61.1,58.8,30.08,SE,142,2.0,3.0,92,0.00,,,0.00,0,WeatherCatV1.15B25,2013-08-17 08:52:00,
2013-08-17 03:53:00,61.1,58.8,30.08,SE,142,0.0,5.0,92,0.00,,,0.00,0,WeatherCatV1.15B25,2013-08-17 08:53:00,
2013-08-17 03:55:00,61.1,58.8,30.08,SE,142,0.0,0.0,92,0.00,,,0.00,0,WeatherCatV1.15B25,2013-08-17 08:55:00,
2013-08-17 03:56:00,61.1,58.8,30.08,SE,142,0.0,4.0,92,0.00,,,0.00,0,WeatherCatV1.15B25,2013-08-17 08:56:00,
2013-08-17 03:57:00,61.1,58.8,30.08,SE,142,0.0,4.0,92,0.00,,,0.00,0,WeatherCatV1.15B25,2013-08-17 08:57:00,
2013-08-17 03:58:00,61.1,58.8,30.08,SE,142,0.0,2.0,92,0.00,,,0.00,0,WeatherCatV1.15B25,2013-08-17 08:58:00,
2013-08-17 03:59:00,61.1,58.8,30.08,SE,142,0.0,0.0,92,0.00,,,0.00,0,WeatherCatV1.15B25,2013-08-17 08:59:00,
2013-08-17 04:00:00,61.1,58.8,30.08,SE,141,0.0,3.0,92,0.00,,,0.00,0,WeatherCatV1.15B25,2013-08-17 09:00:00,
2013-08-17 04:02:00,61.1,58.8,30.08,SE,142,0.0,2.0,92,0.00,,,0.00,0,WeatherCatV1.15B25,2013-08-17 09:02:00,
2013-08-17 04:04:00,61.0,58.7,30.08,SE,142,0.0,0.0,92,0.00,,,0.00,0,WeatherCatV1.15B25,2013-08-17 09:04:00,
2013-08-17 04:06:00,61.0,58.7,30.08,SE,141,1.0,5.0,92,0.00,,,0.00,0,WeatherCatV1.15B25,2013-08-17 09:06:00,
2013-08-17 04:07:00,61.0,58.7,30.08,SE,141,1.0,2.0,92,0.00,,,0.00,0,WeatherCatV1.15B25,2013-08-17 09:07:00,
2013-08-17 04:10:00,61.0,58.7,30.08,SE,142,0.0,3.0,92,0.00,,,0.00,0,WeatherCatV1.15B25,2013-08-17 09:10:00,
2013-08-17 04:11:00,60.9,58.6,30.08,SE,141,0.0,2.0,92,0.00,,,0.00,0,WeatherCatV1.15B25,2013-08-17 09:11:00,
2013-08-17 04:12:00,60.9,58.6,30.08,SE,142,0.0,5.0,92,0.00,,,0.00,0,WeatherCatV1.15B25,2013-08-17 09:12:00,
2013-08-17 04:15:00,60.9,58.6,30.08,SE,142,3.0,4.0,92,0.00,,,0.00,0,WeatherCatV1.15B25,2013-08-17 09:15:00,
2013-08-17 04:16:00,60.9,58.6,30.08,SE,142,0.0,3.0,92,0.00,,,0.00,0,WeatherCatV1.15B25,2013-08-17 09:16:00,
2013-08-17 04:17:00,60.9,58.6,30.08,SE,142,0.0,4.0,92,0.00,,,0.00,0,WeatherCatV1.15B25,2013-08-17 09:17:00,
2013-08-17 04:18:00,60.9,58.6,30.08,SE,141,0.0,4.0,92,0.00,,,0.00,0,WeatherCatV1.15B25,2013-08-17 09:18:00,
2013-08-17 04:20:00,60.9,58.6,30.08,SE,142,0.0,2.0,92,0.00,,,0.00,0,WeatherCatV1.15B25,2013-08-17 09:20:00,
2013-08-17 04:21:00,60.9,58.6,30.08,SE,142,0.0,5.0,92,0.00,,,0.00,0,WeatherCatV1.15B25,2013-08-17 09:21:00,
2013-08-17 04:23:00,60.8,58.5,30.08,SE,141,1.0,3.0,92,0.00,,,0.00,0,WeatherCatV1.15B25,2013-08-17 09:23:00,
2013-08-17 04:25:00,60.8,58.5,30.08,SE,142,0.0,3.0,92,0.00,,,0.00,0,WeatherCatV1.15B25,2013-08-17 09:25:00,
2013-08-17 04:26:00,60.8,58.5,30.08,SE,141,0.0,0.0,92,0.00,,,0.00,0,WeatherCatV1.15B25,2013-08-17 09:26:00,
2013-08-17 04:28:00,60.9,58.6,30.08,SE,141,1.0,2.0,92,0.00,,,0.00,0,WeatherCatV1.15B25,2013-08-17 09:28:00,
2013-08-17 04:30:00,60.9,58.6,30.08,SE,142,0.0,5.0,92,0.00,,,0.00,0,WeatherCatV1.15B25,2013-08-17 09:30:00,
2013-08-17 04:31:00,60.9,58.6,30.08,SE,142,3.0,5.0,92,0.00,,,0.00,0,WeatherCatV1.15B25,2013-08-17 09:31:00,
2013-08-17 04:33:00,60.9,58.6,30.08,SE,142,2.0,2.0,92,0.00,,,0.00,0,WeatherCatV1.15B25,2013-08-17 09:33:00,
2013-08-17 04:35:00,61.0,58.7,30.08,SE,142,0.0,3.0,92,0.00,,,0.00,0,WeatherCatV1.15B25,2013-08-17 09:35:00,
2013-08-17 04:36:00,61.0,58.7,30.08,SE,142,3.0,3.0,92,0.00,,,0.00,0,WeatherCatV1.15B25,2013-08-17 09:36:00,
2013-08-17 04:38:00,61.1,58.8,30.08,SE,142,0.0,0.0,92,0.00,,,0.00,0,WeatherCatV1.15B25,2013-08-17 09:38:00,
2013-08-17 04:39:00,61.1,58.8,30.08,SE,141,0.0,0.0,92,0.00,,,0.00,0,WeatherCatV1.15B25,2013-08-17 09:39:00,
2013-08-17 04:41:00,61.1,58.8,30.08,SE,142,0.0,3.0,92,0.00,,,0.00,0,WeatherCatV1.15B25,2013-08-17 09:41:00,
2013-08-17 04:42:00,61.1,58.8,30.08,SE,141,0.0,1.0,92,0.00,,,0.00,0,WeatherCatV1.15B25,2013-08-17 09:42:00,
2013-08-17 04:43:00,61.1,58.8,30.08,SE,142,0.0,2.0,92,0.00,,,0.00,0,WeatherCatV1.15B25,2013-08-17 09:43:00,
2013-08-17 04:44:00,61.2,58.9,30.08,SE,142,2.0,2.0,92,0.00,,,0.00,0,WeatherCatV1.15B25,2013-08-17 09:44:00,
2013-08-17 04:46:00,61.2,58.9,30.08,SE,141,2.0,2.0,92,0.00,,,0.00,0,WeatherCatV1.15B25,2013-08-17 09:46:00,
2013-08-17 04:47:00,61.2,58.9,30.08,SE,142,5.0,5.0,92,0.00,,,0.00,0,WeatherCatV1.15B25,2013-08-17 09:47:00,
2013-08-17 04:48:00,61.3,59.0,30.08,SE,141,1.0,5.0,92,0.00,,,0.00,0,WeatherCatV1.15B25,2013-08-17 09:48:00,
2013-08-17 04:49:00,61.3,59.0,30.08,SE,141,2.0,4.0,92,0.00,,,0.00,0,WeatherCatV1.15B25,2013-08-17 09:49:00,
2013-08-17 04:51:00,61.3,59.0,30.08,SE,142,0.0,7.0,92,0.00,,,0.00,0,WeatherCatV1.15B25,2013-08-17 09:51:00,
2013-08-17 04:52:00,61.3,59.0,30.07,SE,142,0.0,7.0,92,0.00,,,0.00,0,WeatherCatV1.15B25,2013-08-17 09:52:00,
2013-08-17 04:54:00,61.3,58.6,30.08,SE,141,0.0,5.0,91,0.00,,,0.00,0,WeatherCatV1.15B25,2013-08-17 09:54:00,
2013-08-17 04:56:00,61.3,58.6,30.08,SE,141,2.0,4.0,91,0.00,,,0.00,0,WeatherCatV1.15B25,2013-08-17 09:56:00,
2013-08-17 04:57:00,61.3,58.6,30.07,SE,142,0.0,4.0,91,0.00,,,0.00,0,WeatherCatV1.15B25,2013-08-17 09:57:00,
2013-08-17 04:59:00,61.3,58.6,30.08,SE,142,3.0,5.0,91,0.00,,,0.00,0,WeatherCatV1.15B25,2013-08-17 09:59:00,
2013-08-17 05:01:00,61.2,58.5,30.08,SE,142,6.0,6.0,91,0.00,,,0.00,0,WeatherCatV1.15B25,2013-08-17 10:01:00,
2013-08-17 05:02:00,61.2,58.5,30.07,SE,142,2.0,6.0,91,0.00,,,0.00,0,WeatherCatV1.15B25,2013-08-17 10:02:00,
2013-08-17 05:04:00,61.2,58.5,30.07,SE,142,0.0,7.0,91,0.00,,,0.00,0,WeatherCatV1.15B25,2013-08-17 10:04:00,
2013-08-17 05:07:00,61.1,58.4,30.07,SE,142,1.0,1.0,91,0.00,,,0.00,0,WeatherCatV1.15B25,2013-08-17 10:07:00,
2013-08-17 05:09:00,61.1,58.4,30.07,SE,142,0.0,3.0,91,0.00,,,0.00,0,WeatherCatV1.15B25,2013-08-17 10:09:00,
2013-08-17 05:12:00,61.0,58.3,30.07,SE,142,0.0,4.0,91,0.00,,,0.00,0,WeatherCatV1.15B25,2013-08-17 10:12:00,
2013-08-17 05:14:00,61.0,58.3,30.07,SE,142,2.0,3.0,91,0.00,,,0.00,0,WeatherCatV1.15B25,2013-08-17 10:14:00,
2013-08-17 05:15:00,61.0,58.3,30.07,SE,142,3.0,3.0,91,0.00,,,0.00,0,WeatherCatV1.15B25,2013-08-17 10:15:00,
2013-08-17 05:17:00,60.9,58.3,30.07,SE,142,2.0,3.0,91,0.00,,,0.00,0,WeatherCatV1.15B25,2013-08-17 10:17:00,
2013-08-17 05:18:00,60.9,58.3,30.07,SE,141,0.0,3.0,91,0.00,,,0.00,0,WeatherCatV1.15B25,2013-08-17 10:18:00,
2013-08-17 05:20:00,60.9,58.3,30.07,SE,142,3.0,4.0,91,0.00,,,0.00,0,WeatherCatV1.15B25,2013-08-17 10:20:00,
2013-08-17 05:22:00,60.8,58.2,30.07,SE,142,0.0,4.0,91,0.00,,,0.00,0,WeatherCatV1.15B25,2013-08-17 10:22:00,
2013-08-17 05:23:00,60.8,58.2,30.07,SE,141,3.0,4.0,91,0.00,,,0.00,0,WeatherCatV1.15B25,2013-08-17 10:23:00,
2013-08-17 05:25:00,60.7,58.1,30.07,SE,142,1.0,4.0,91,0.00,,,0.00,0,WeatherCatV1.15B25,2013-08-17 10:25:00,
2013-08-17 05:27:00,60.7,58.1,30.07,SE,142,2.0,2.0,91,0.00,,,0.00,0,WeatherCatV1.15B25,2013-08-17 10:27:00,
2013-08-17 05:28:00,60.6,58.0,30.07,SE,141,2.0,5.0,91,0.00,,,0.00,0,WeatherCatV1.15B25,2013-08-17 10:28:00,
2013-08-17 05:30:00,60.5,57.9,30.07,SE,141,0.0,3.0,91,0.00,,,0.00,0,WeatherCatV1.15B25,2013-08-17 10:30:00,
2013-08-17 05:33:00,60.5,57.9,30.07,SE,141,4.0,6.0,91,0.00,,,0.00,0,WeatherCatV1.15B25,2013-08-17 10:33:00,
2013-08-17 05:34:00,60.5,57.9,30.07,SE,142,0.0,5.0,91,0.00,,,0.00,0,WeatherCatV1.15B25,2013-08-17 10:34:00,
2013-08-17 05:35:00,60.4,57.8,30.07,SE,141,0.0,1.0,91,0.00,,,0.00,0,WeatherCatV1.15B25,2013-08-17 10:35:00,
2013-08-17 05:38:00,60.3,57.7,30.07,SE,141,0.0,3.0,91,0.00,,,0.00,0,WeatherCatV1.15B25,2013-08-17 10:38:00,
2013-08-17 05:39:00,60.3,57.7,30.07,SE,142,0.0,3.0,91,0.00,,,0.00,0,WeatherCatV1.15B25,2013-08-17 10:39:00,
2013-08-17 05:40:00,60.3,57.7,30.07,SE,141,0.0,4.0,91,0.00,,,0.00,0,WeatherCatV1.15B25,2013-08-17 10:40:00,
2013-08-17 05:41:00,60.3,57.7,30.07,SE,142,1.0,4.0,91,0.00,,,0.00,0,WeatherCatV1.15B25,2013-08-17 10:41:00,
2013-08-17 05:43:00,60.2,57.9,30.07,SE,142,0.0,6.0,92,0.00,,,0.00,0,WeatherCatV1.15B25,2013-08-17 10:43:00,
2013-08-17 05:44:00,60.2,57.9,30.07,SE,141,0.0,6.0,92,0.00,,,0.00,0,WeatherCatV1.15B25,2013-08-17 10:44:00,
2013-08-17 05:45:00,60.1,57.8,30.07,SE,142,0.0,3.0,92,0.00,,,0.00,0,WeatherCatV1.15B25,2013-08-17 10:45:00,
2013-08-17 05:46:00,60.1,57.8,30.07,SE,142,0.0,3.0,92,0.00,,,0.00,0,WeatherCatV1.15B25,2013-08-17 10:46:00,
2013-08-17 05:49:00,60.0,57.7,30.07,SE,142,3.0,3.0,92,0.00,,,0.00,0,WeatherCatV1.15B25,2013-08-17 10:49:00,
2013-08-17 05:51:00,60.0,57.7,30.07,SE,142,0.0,5.0,92,0.00,,,0.00,0,WeatherCatV1.15B25,2013-08-17 10:51:00,
2013-08-17 05:54:00,60.0,57.7,30.07,SE,142,0.0,5.0,92,0.00,,,0.00,0,WeatherCatV1.15B25,2013-08-17 10:54:00,
2013-08-17 05:56:00,60.0,57.7,30.07,SE,142,1.0,5.0,92,0.00,,,0.00,0,WeatherCatV1.15B25,2013-08-17 10:56:00,
2013-08-17 05:57:00,59.9,57.6,30.07,SE,141,0.0,1.0,92,0.00,,,0.00,0,WeatherCatV1.15B25,2013-08-17 10:57:00,
2013-08-17 05:59:00,59.9,57.6,30.07,SE,141,3.0,5.0,92,0.00,,,0.00,0,WeatherCatV1.15B25,2013-08-17 10:59:00,
2013-08-17 06:01:00,59.9,57.6,30.07,SE,142,0.0,2.0,92,0.00,,,0.00,0,WeatherCatV1.15B25,2013-08-17 11:01:00,
2013-08-17 06:02:00,59.9,57.6,30.07,SE,142,0.0,0.0,92,0.00,,,0.00,0,WeatherCatV1.15B25,2013-08-17 11:02:00,
2013-08-17 06:04:00,59.9,57.6,30.07,SE,141,0.0,5.0,92,0.00,,,0.00,0,WeatherCatV1.15B25,2013-08-17 11:04:00,
2013-08-17 06:05:00,59.9,57.6,30.07,SE,141,2.0,6.0,92,0.00,,,0.00,0,WeatherCatV1.15B25,2013-08-17 11:05:00,
2013-08-17 06:06:00,59.9,57.6,30.07,SE,142,1.0,6.0,92,0.00,,,0.00,0,WeatherCatV1.15B25,2013-08-17 11:06:00,
2013-08-17 06:07:00,59.9,57.6,30.07,SE,142,1.0,2.0,92,0.00,,,0.00,0,WeatherCatV1.15B25,2013-08-17 11:07:00,
2013-08-17 06:09:00,59.9,57.6,30.07,SE,142,3.0,5.0,92,0.00,,,0.00,0,WeatherCatV1.15B25,2013-08-17 11:09:00,
2013-08-17 06:10:00,59.8,57.5,30.07,SE,142,0.0,5.0,92,0.00,,,0.00,0,WeatherCatV1.15B25,2013-08-17 11:10:00,
2013-08-17 06:11:00,59.8,57.5,30.07,SE,142,3.0,3.0,92,0.00,,,0.00,0,WeatherCatV1.15B25,2013-08-17 11:11:00,
2013-08-17 06:13:00,59.8,57.5,30.07,SE,142,2.0,4.0,92,0.00,,,0.00,0,WeatherCatV1.15B25,2013-08-17 11:13:00,
2013-08-17 06:14:00,59.8,57.5,30.07,SE,141,4.0,4.0,92,0.00,,,0.00,0,WeatherCatV1.15B25,2013-08-17 11:14:00,
2013-08-17 06:15:00,59.8,57.5,30.07,SE,142,1.0,4.0,92,0.00,,,0.00,0,WeatherCatV1.15B25,2013-08-17 11:15:00,
2013-08-17 06:16:00,59.8,57.5,30.07,SE,142,5.0,6.0,92,0.00,,,0.00,0,WeatherCatV1.15B25,2013-08-17 11:16:00,
2013-08-17 06:18:00,59.8,57.5,30.07,SE,142,7.0,7.0,92,0.00,,,0.00,0,WeatherCatV1.15B25,2013-08-17 11:18:00,
2013-08-17 06:20:00,59.8,57.5,30.07,SE,145,2.0,9.0,92,0.00,,,0.00,0,WeatherCatV1.15B25,2013-08-17 11:20:00,
2013-08-17 06:21:00,59.9,57.6,30.07,SE,146,1.0,9.0,92,0.00,,,0.00,0,WeatherCatV1.15B25,2013-08-17 11:21:00,
2013-08-17 06:23:00,59.8,57.5,30.07,SE,146,2.0,3.0,92,0.00,,,0.00,0,WeatherCatV1.15B25,2013-08-17 11:23:00,
2013-08-17 06:25:00,59.8,57.5,30.07,SE,145,1.0,5.0,92,0.00,,,0.00,0,WeatherCatV1.15B25,2013-08-17 11:25:00,
2013-08-17 06:26:00,59.8,57.5,30.07,SE,146,1.0,4.0,92,0.00,,,0.00,0,WeatherCatV1.15B25,2013-08-17 11:26:00,
2013-08-17 06:28:00,59.8,57.5,30.07,SE,146,1.0,4.0,92,0.00,,,0.00,0,WeatherCatV1.15B25,2013-08-17 11:28:00,
2013-08-17 06:30:00,59.8,57.5,30.07,SE,146,4.0,5.0,92,0.00,,,0.00,0,WeatherCatV1.15B25,2013-08-17 11:30:00,
2013-08-17 06:32:00,59.8,57.5,30.07,SE,145,3.0,6.0,92,0.00,,,0.00,0,WeatherCatV1.15B25,2013-08-17 11:32:00,
2013-08-17 06:33:00,59.8,57.5,30.07,SE,146,3.0,6.0,92,0.00,,,0.00,0,WeatherCatV1.15B25,2013-08-17 11:33:00,
2013-08-17 06:35:00,59.8,57.5,30.07,SE,146,0.0,6.0,92,0.00,,,0.00,0,WeatherCatV1.15B25,2013-08-17 11:35:00,
2013-08-17 06:37:00,59.8,57.5,30.07,SE,146,0.0,4.0,92,0.00,,,0.00,0,WeatherCatV1.15B25,2013-08-17 11:37:00,
2013-08-17 06:38:00,59.8,57.5,30.07,SE,146,0.0,4.0,92,0.00,,,0.00,0,WeatherCatV1.15B25,2013-08-17 11:38:00,
2013-08-17 06:40:00,59.7,57.4,30.07,SE,146,1.0,6.0,92,0.00,,,0.00,0,WeatherCatV1.15B25,2013-08-17 11:40:00,
2013-08-17 06:41:00,59.7,57.4,30.07,SE,146,0.0,6.0,92,0.00,,,0.00,0,WeatherCatV1.15B25,2013-08-17 11:41:00,
2013-08-17 06:42:00,59.7,57.4,30.07,SE,146,0.0,3.0,92,0.00,,,0.00,0,WeatherCatV1.15B25,2013-08-17 11:42:00,
2013-08-17 06:43:00,59.7,57.4,30.07,SE,146,0.0,1.0,92,0.00,,,0.00,0,WeatherCatV1.15B25,2013-08-17 11:43:00,
2013-08-17 06:45:00,59.6,57.3,30.07,SE,146,3.0,5.0,92,0.00,,,0.00,5,WeatherCatV1.15B25,2013-08-17 11:45:00,
2013-08-17 06:46:00,59.6,57.3,30.07,SE,146,5.0,5.0,92,0.00,,,0.00,5,WeatherCatV1.15B25,2013-08-17 11:46:00,
2013-08-17 06:47:00,59.6,57.3,30.07,SE,146,0.0,2.0,92,0.00,,,0.00,5,WeatherCatV1.15B25,2013-08-17 11:47:00,
2013-08-17 06:48:00,59.6,57.3,30.07,SE,146,0.0,3.0,92,0.00,,,0.00,5,WeatherCatV1.15B25,2013-08-17 11:48:00,
2013-08-17 06:50:00,59.6,57.3,30.07,SE,146,1.0,6.0,92,0.00,,,0.00,7,WeatherCatV1.15B25,2013-08-17 11:50:00,
2013-08-17 06:51:00,59.6,57.3,30.07,SE,146,0.0,6.0,92,0.00,,,0.00,7,WeatherCatV1.15B25,2013-08-17 11:51:00,
2013-08-17 06:52:00,59.5,57.2,30.07,SE,146,1.0,2.0,92,0.00,,,0.00,9,WeatherCatV1.15B25,2013-08-17 11:52:00,
2013-08-17 06:54:00,59.5,57.2,30.07,SE,146,0.0,4.0,92,0.00,,,0.00,9,WeatherCatV1.15B25,2013-08-17 11:54:00,
2013-08-17 06:56:00,59.5,57.2,30.08,SE,146,0.0,4.0,92,0.00,,,0.00,11,WeatherCatV1.15B25,2013-08-17 11:56:00,
2013-08-17 06:57:00,59.5,57.2,30.08,SE,146,2.0,4.0,92,0.00,,,0.00,12,WeatherCatV1.15B25,2013-08-17 11:57:00,
2013-08-17 06:59:00,59.5,57.2,30.08,SE,146,2.0,4.0,92,0.00,,,0.00,12,WeatherCatV1.15B25,2013-08-17 11:59:00,
2013-08-17 07:01:00,59.5,57.2,30.08,SE,146,0.0,2.0,92,0.00,,,0.00,14,WeatherCatV1.15B25,2013-08-17 12:01:00,
2013-08-17 07:03:00,59.5,57.2,30.08,SE,146,0.0,3.0,92,0.00,,,0.00,18,WeatherCatV1.15B25,2013-08-17 12:03:00,
2013-08-17 07:04:00,59.5,57.2,30.08,SE,146,3.0,5.0,92,0.00,,,0.00,18,WeatherCatV1.15B25,2013-08-17 12:04:00,
2013-08-17 07:06:00,59.5,57.2,30.08,SSE,150,0.0,9.0,92,0.00,,,0.00,19,WeatherCatV1.15B25,2013-08-17 12:06:00,
2013-08-17 07:08:00,59.6,57.3,30.08,SSE,150,1.0,4.0,92,0.00,,,0.00,21,WeatherCatV1.15B25,2013-08-17 12:08:00,
2013-08-17 07:09:00,59.5,57.2,30.08,SSE,150,0.0,4.0,92,0.00,,,0.00,21,WeatherCatV1.15B25,2013-08-17 12:09:00,
2013-08-17 07:11:00,59.6,57.3,30.08,SSE,150,3.0,5.0,92,0.00,,,0.00,23,WeatherCatV1.15B25,2013-08-17 12:11:00,
2013-08-17 07:13:00,59.6,57.3,30.08,SSE,150,0.0,1.0,92,0.00,,,0.00,25,WeatherCatV1.15B25,2013-08-17 12:13:00,
2013-08-17 07:14:00,59.6,57.3,30.08,SSE,150,1.0,7.0,92,0.00,,,0.00,25,WeatherCatV1.15B25,2013-08-17 12:14:00,
2013-08-17 07:16:00,59.6,57.3,30.08,SSE,150,4.0,10.0,92,0.00,,,0.00,28,WeatherCatV1.15B25,2013-08-17 12:16:00,
2013-08-17 07:17:00,59.6,57.3,30.08,SSE,151,6.0,10.0,92,0.00,,,0.00,28,WeatherCatV1.15B25,2013-08-17 12:17:00,
2013-08-17 07:18:00,59.8,57.5,30.08,SSE,150,0.0,5.0,92,0.00,,,0.00,30,WeatherCatV1.15B25,2013-08-17 12:18:00,
2013-08-17 07:19:00,59.7,57.4,30.07,SSE,150,1.0,4.0,92,0.00,,,0.00,30,WeatherCatV1.15B25,2013-08-17 12:19:00,
2013-08-17 07:22:00,59.8,57.5,30.08,SSE,153,3.0,7.0,92,0.00,,,0.00,32,WeatherCatV1.15B25,2013-08-17 12:22:00,
2013-08-17 07:23:00,59.8,57.5,30.08,SSE,153,3.0,5.0,92,0.00,,,0.00,33,WeatherCatV1.15B25,2013-08-17 12:23:00,
2013-08-17 07:24:00,59.8,57.5,30.08,SSE,153,3.0,4.0,92,0.00,,,0.00,33,WeatherCatV1.15B25,2013-08-17 12:24:00,
2013-08-17 07:27:00,59.9,57.6,30.08,SSE,153,4.0,8.0,92,0.00,,,0.00,37,WeatherCatV1.15B25,2013-08-17 12:27:00,
2013-08-17 07:28:00,59.9,57.6,30.08,SSE,153,2.0,8.0,92,0.00,,,0.00,39,WeatherCatV1.15B25,2013-08-17 12:28:00,
2013-08-17 07:31:00,60.0,57.7,30.08,SSE,155,7.0,7.0,92,0.00,,,0.00,42,WeatherCatV1.15B25,2013-08-17 12:31:00,
2013-08-17 07:32:00,60.1,57.8,30.08,SSE,157,4.0,9.0,92,0.00,,,0.00,42,WeatherCatV1.15B25,2013-08-17 12:32:00,
2013-08-17 07:33:00,60.1,57.8,30.08,SSE,157,2.0,9.0,92,0.00,,,0.00,42,WeatherCatV1.15B25,2013-08-17 12:33:00,
2013-08-17 07:36:00,60.2,57.9,30.08,SSE,157,3.0,7.0,92,0.00,,,0.00,51,WeatherCatV1.15B25,2013-08-17 12:36:00,
2013-08-17 07:37:00,60.3,58.0,30.08,SSE,157,6.0,7.0,92,0.00,,,0.00,47,WeatherCatV1.15B25,2013-08-17 12:37:00,
2013-08-17 07:38:00,60.3,58.0,30.09,SSE,159,5.0,6.0,92,0.00,,,0.00,47,WeatherCatV1.15B25,2013-08-17 12:38:00,
2013-08-17 07:41:00,60.5,58.2,30.08,South,169,3.0,4.0,92,0.00,,,0.00,51,WeatherCatV1.15B25,2013-08-17 12:41:00,
2013-08-17 07:43:00,60.5,58.2,30.08,South,171,0.0,7.0,92,0.00,,,0.00,53,WeatherCatV1.15B25,2013-08-17 12:43:00,
2013-08-17 07:44:00,60.6,58.3,30.08,South,171,3.0,4.0,92,0.00,,,0.00,51,WeatherCatV1.15B25,2013-08-17 12:44:00,
2013-08-17 07:46:00,60.7,58.4,30.08,South,171,2.0,7.0,92,0.00,,,0.00,53,WeatherCatV1.15B25,2013-08-17 12:46:00,
2013-08-17 07:48:00,60.8,58.5,30.08,South,171,0.0,3.0,92,0.00,,,0.00,54,WeatherCatV1.15B25,2013-08-17 12:48:00,
2013-08-17 07:49:00,60.8,58.5,30.09,South,171,4.0,6.0,92,0.00,,,0.00,56,WeatherCatV1.15B25,2013-08-17 12:49:00,
2013-08-17 07:51:00,61.0,58.7,30.08,South,172,5.0,8.0,92,0.00,,,0.00,58,WeatherCatV1.15B25,2013-08-17 12:51:00,
2013-08-17 07:53:00,61.0,58.3,30.09,South,175,1.0,11.0,91,0.00,,,0.00,58,WeatherCatV1.15B25,2013-08-17 12:53:00,
2013-08-17 07:54:00,61.1,58.4,30.09,South,175,0.0,3.0,91,0.00,,,0.00,60,WeatherCatV1.15B25,2013-08-17 12:54:00,
2013-08-17 07:56:00,61.2,58.5,30.08,South,175,3.0,6.0,91,0.00,,,0.00,63,WeatherCatV1.15B25,2013-08-17 12:56:00,
2013-08-17 07:58:00,61.3,58.6,30.09,South,176,2.0,9.0,91,0.00,,,0.00,67,WeatherCatV1.15B25,2013-08-17 12:58:00,
2013-08-17 07:59:00,61.3,58.6,30.08,South,176,5.0,9.0,91,0.00,,,0.00,104,WeatherCatV1.15B25,2013-08-17 12:59:00,
2013-08-17 08:02:00,61.4,58.7,30.08,South,173,3.0,11.0,91,0.00,,,0.00,109,WeatherCatV1.15B25,2013-08-17 13:02:00,
2013-08-17 08:03:00,61.5,58.8,30.09,South,173,5.0,9.0,91,0.00,,,0.00,153,WeatherCatV1.15B25,2013-08-17 13:03:00,
2013-08-17 08:04:00,61.6,58.6,30.09,SE,141,3.0,10.0,90,0.00,,,0.00,153,WeatherCatV1.15B25,2013-08-17 13:04:00,
2013-08-17 08:07:00,61.7,58.7,30.08,SSE,153,4.0,6.0,90,0.00,,,0.00,176,WeatherCatV1.15B25,2013-08-17 13:07:00,
2013-08-17 08:08:00,61.8,58.8,30.09,SSE,156,3.0,10.0,90,0.00,,,0.00,178,WeatherCatV1.15B25,2013-08-17 13:08:00,
2013-08-17 08:09:00,61.9,58.9,30.08,SSE,156,3.0,10.0,90,0.00,,,0.00,178,WeatherCatV1.15B25,2013-08-17 13:09:00,
2013-08-17 08:12:00,62.1,59.1,30.09,SSE,157,3.0,7.0,90,0.00,,,0.00,190,WeatherCatV1.15B25,2013-08-17 13:12:00,
2013-08-17 08:14:00,62.2,58.9,30.09,SSE,163,4.0,7.0,89,0.00,,,0.00,200,WeatherCatV1.15B25,2013-08-17 13:14:00,
2013-08-17 08:18:00,62.5,59.2,30.08,SSE,167,0.0,5.0,89,0.00,,,0.00,207,WeatherCatV1.15B25,2013-08-17 13:18:00,
2013-08-17 08:19:00,62.6,59.3,30.08,SSE,167,0.0,5.0,89,0.00,,,0.00,211,WeatherCatV1.15B25,2013-08-17 13:19:00,
2013-08-17 08:20:00,62.7,59.4,30.09,SSE,167,2.0,3.0,89,0.00,,,0.00,211,WeatherCatV1.15B25,2013-08-17 13:20:00,
2013-08-17 08:23:00,62.9,59.3,30.09,South,169,9.0,9.0,88,0.00,,,0.00,225,WeatherCatV1.15B25,2013-08-17 13:23:00,
2013-08-17 08:24:00,62.9,59.3,30.09,South,169,3.0,9.0,88,0.00,,,0.00,229,WeatherCatV1.15B25,2013-08-17 13:24:00,
2013-08-17 08:25:00,63.1,59.5,30.08,South,169,1.0,3.0,88,0.00,,,0.00,234,WeatherCatV1.15B25,2013-08-17 13:25:00,
2013-08-17 08:28:00,63.1,59.5,30.08,SSW,195,4.0,12.0,88,0.00,,,0.00,236,WeatherCatV1.15B25,2013-08-17 13:28:00,
2013-08-17 08:29:00,63.1,59.5,30.08,SSW,195,3.0,12.0,88,0.00,,,0.00,239,WeatherCatV1.15B25,2013-08-17 13:29:00,
2013-08-17 08:30:00,63.2,59.6,30.08,SSW,195,2.0,4.0,88,0.00,,,0.00,246,WeatherCatV1.15B25,2013-08-17 13:30:00,
2013-08-17 08:31:00,63.2,59.6,30.08,SSW,195,2.0,6.0,88,0.00,,,0.00,250,WeatherCatV1.15B25,2013-08-17 13:31:00,
2013-08-17 08:33:00,63.4,59.5,30.08,SSW,194,3.0,10.0,87,0.00,,,0.00,251,WeatherCatV1.15B25,2013-08-17 13:33:00,
2013-08-17 08:34:00,63.4,59.5,30.08,SSW,194,3.0,7.0,87,0.00,,,0.00,255,WeatherCatV1.15B25,2013-08-17 13:34:00,
2013-08-17 08:35:00,63.4,59.5,30.08,SSW,194,10.0,10.0,87,0.00,,,0.00,257,WeatherCatV1.15B25,2013-08-17 13:35:00,
2013-08-17 08:36:00,63.6,59.7,30.08,SSW,192,4.0,10.0,87,0.00,,,0.00,264,WeatherCatV1.15B25,2013-08-17 13:36:00,
2013-08-17 08:38:00,63.6,59.7,30.08,SSW,193,2.0,10.0,87,0.00,,,0.00,269,WeatherCatV1.15B25,2013-08-17 13:38:00,
2013-08-17 08:39:00,63.7,59.8,30.08,SSW,193,1.0,10.0,87,0.00,,,0.00,271,WeatherCatV1.15B25,2013-08-17 13:39:00,
2013-08-17 08:40:00,63.7,59.8,30.09,SSW,192,4.0,5.0,87,0.00,,,0.00,272,WeatherCatV1.15B25,2013-08-17 13:40:00,
2013-08-17 08:41:00,63.9,59.9,30.09,SSW,192,1.0,5.0,87,0.00,,,0.00,279,WeatherCatV1.15B25,2013-08-17 13:41:00,
2013-08-17 08:43:00,63.9,59.9,30.08,SSW,194,3.0,13.0,87,0.00,,,0.00,285,WeatherCatV1.15B25,2013-08-17 13:43:00,
2013-08-17 08:44:00,64.0,59.7,30.09,SSW,194,4.0,6.0,86,0.00,,,0.00,292,WeatherCatV1.15B25,2013-08-17 13:44:00,
2013-08-17 08:45:00,64.0,59.7,30.09,SSW,194,1.0,6.0,86,0.00,,,0.00,294,WeatherCatV1.15B25,2013-08-17 13:45:00,
2013-08-17 08:46:00,64.0,59.7,30.09,SSW,194,2.0,6.0,86,0.00,,,0.00,295,WeatherCatV1.15B25,2013-08-17 13:46:00,
2013-08-17 08:48:00,64.3,60.0,30.09,SSW,194,5.0,5.0,86,0.00,,,0.00,309,WeatherCatV1.15B25,2013-08-17 13:48:00,
2013-08-17 08:49:00,64.3,60.0,30.09,SSW,194,4.0,6.0,86,0.00,,,0.00,308,WeatherCatV1.15B25,2013-08-17 13:49:00,
2013-08-17 08:50:00,64.4,60.1,30.09,SSW,194,4.0,4.0,86,0.00,,,0.00,327,WeatherCatV1.15B25,2013-08-17 13:50:00,
2013-08-17 08:51:00,64.5,60.2,30.09,SSW,192,5.0,11.0,86,0.00,,,0.00,327,WeatherCatV1.15B25,2013-08-17 13:51:00,
2013-08-17 08:53:00,64.6,60.0,30.09,South,183,6.0,7.0,85,0.00,,,0.00,327,WeatherCatV1.15B25,2013-08-17 13:53:00,
2013-08-17 08:54:00,64.7,60.4,30.09,South,183,4.0,6.0,86,0.00,,,0.00,323,WeatherCatV1.15B25,2013-08-17 13:54:00,
2013-08-17 08:55:00,64.8,60.2,30.09,South,182,5.0,10.0,85,0.00,,,0.00,329,WeatherCatV1.15B25,2013-08-17 13:55:00,
2013-08-17 08:56:00,64.9,60.3,30.09,South,182,4.0,10.0,85,0.00,,,0.00,323,WeatherCatV1.15B25,2013-08-17 13:56:00,
2013-08-17 08:57:00,65.0,60.4,30.09,South,182,0.0,5.0,85,0.00,,,0.00,329,WeatherCatV1.15B25,2013-08-17 13:57:00,
2013-08-17 08:58:00,65.2,60.6,30.09,South,180,1.0,7.0,85,0.00,,,0.00,315,WeatherCatV1.15B25,2013-08-17 13:58:00,
2013-08-17 09:00:00,65.3,60.7,30.09,South,182,3.0,7.0,85,0.00,,,0.00,364,WeatherCatV1.15B25,2013-08-17 14:00:00,
2013-08-17 09:01:00,65.3,60.3,30.09,South,189,4.0,11.0,84,0.00,,,0.00,364,WeatherCatV1.15B25,2013-08-17 14:01:00,
2013-08-17 09:02:00,65.3,60.3,30.09,South,188,1.0,11.0,84,0.00,,,0.00,290,WeatherCatV1.15B25,2013-08-17 14:02:00,
2013-08-17 09:04:00,65.3,60.3,30.09,South,171,7.0,9.0,84,0.00,,,0.00,357,WeatherCatV1.15B25,2013-08-17 14:04:00,
2013-08-17 09:05:00,65.3,60.3,30.09,South,171,5.0,7.0,84,0.00,,,0.00,362,WeatherCatV1.15B25,2013-08-17 14:05:00,
2013-08-17 09:06:00,65.4,60.4,30.09,South,171,5.0,5.0,84,0.00,,,0.00,371,WeatherCatV1.15B25,2013-08-17 14:06:00,
2013-08-17 09:07:00,65.5,60.9,30.09,South,169,4.0,7.0,85,0.00,,,0.00,371,WeatherCatV1.15B25,2013-08-17 14:07:00,
2013-08-17 09:09:00,65.6,60.6,30.09,South,169,1.0,5.0,84,0.00,,,0.00,367,WeatherCatV1.15B25,2013-08-17 14:09:00,
2013-08-17 09:10:00,65.7,60.7,30.09,South,169,5.0,5.0,84,0.00,,,0.00,373,WeatherCatV1.15B25,2013-08-17 14:10:00,
2013-08-17 09:11:00,65.8,60.8,30.09,South,177,4.0,7.0,84,0.00,,,0.00,369,WeatherCatV1.15B25,2013-08-17 14:11:00,
2013-08-17 09:12:00,65.8,60.8,30.09,South,183,6.0,10.0,84,0.00,,,0.00,373,WeatherCatV1.15B25,2013-08-17 14:12:00,
2013-08-17 09:14:00,65.8,60.8,30.09,South,184,7.0,7.0,84,0.00,,,0.00,380,WeatherCatV1.15B25,2013-08-17 14:14:00,
2013-08-17 09:15:00,65.9,60.9,30.09,South,184,1.0,7.0,84,0.00,,,0.00,374,WeatherCatV1.15B25,2013-08-17 14:15:00,
2013-08-17 09:16:00,66.0,61.0,30.09,South,175,6.0,7.0,84,0.00,,,0.00,374,WeatherCatV1.15B25,2013-08-17 14:16:00,
2013-08-17 09:17:00,66.1,61.1,30.09,South,175,4.0,7.0,84,0.00,,,0.00,376,WeatherCatV1.15B25,2013-08-17 14:17:00,
2013-08-17 09:19:00,66.2,60.9,30.09,South,175,3.0,10.0,83,0.00,,,0.00,399,WeatherCatV1.15B25,2013-08-17 14:19:00,
2013-08-17 09:20:00,66.2,60.9,30.09,South,190,3.0,11.0,83,0.00,,,0.00,406,WeatherCatV1.15B25,2013-08-17 14:20:00,
2013-08-17 09:21:00,66.1,60.8,30.09,SSW,196,11.0,12.0,83,0.00,,,0.00,408,WeatherCatV1.15B25,2013-08-17 14:21:00,
2013-08-17 09:22:00,66.1,60.8,30.09,SSW,196,10.0,12.0,83,0.00,,,0.00,408,WeatherCatV1.15B25,2013-08-17 14:22:00,
2013-08-17 09:24:00,66.0,60.7,30.09,SSW,197,1.0,7.0,83,0.00,,,0.00,410,WeatherCatV1.15B25,2013-08-17 14:24:00,
2013-08-17 09:25:00,66.1,60.8,30.09,SSW,198,2.0,10.0,83,0.00,,,0.00,422,WeatherCatV1.15B25,2013-08-17 14:25:00,
2013-08-17 09:26:00,66.2,60.9,30.09,SSW,198,0.0,10.0,83,0.00,,,0.00,420,WeatherCatV1.15B25,2013-08-17 14:26:00,
2013-08-17 09:27:00,66.3,61.3,30.09,SSW,198,2.0,4.0,84,0.00,,,0.00,418,WeatherCatV1.15B25,2013-08-17 14:27:00,
2013-08-17 09:29:00,66.5,61.2,30.09,SSW,194,2.0,8.0,83,0.00,,,0.00,432,WeatherCatV1.15B25,2013-08-17 14:29:00,
2013-08-17 09:30:00,66.6,61.3,30.09,SSW,198,3.0,10.0,83,0.00,,,0.00,439,WeatherCatV1.15B25,2013-08-17 14:30:00,
2013-08-17 09:31:00,66.6,61.3,30.09,SSW,198,1.0,10.0,83,0.00,,,0.00,439,WeatherCatV1.15B25,2013-08-17 14:31:00,
2013-08-17 09:32:00,66.7,61.4,30.09,SSW,198,2.0,10.0,83,0.00,,,0.00,445,WeatherCatV1.15B25,2013-08-17 14:32:00,
2013-08-17 09:33:00,66.6,61.3,30.09,SSW,201,3.0,10.0,83,0.00,,,0.00,443,WeatherCatV1.15B25,2013-08-17 14:33:00,
2013-08-17 09:34:00,66.7,61.4,30.09,SSW,202,4.0,7.0,83,0.00,,,0.00,455,WeatherCatV1.15B25,2013-08-17 14:34:00,
2013-08-17 09:35:00,66.7,61.4,30.09,SSW,201,3.0,11.0,83,0.00,,,0.00,455,WeatherCatV1.15B25,2013-08-17 14:35:00,
2013-08-17 09:36:00,66.8,61.5,30.09,SSW,201,5.0,11.0,83,0.00,,,0.00,454,WeatherCatV1.15B25,2013-08-17 14:36:00,
2013-08-17 09:37:00,66.8,61.5,30.09,SSW,201,2.0,5.0,83,0.00,,,0.00,469,WeatherCatV1.15B25,2013-08-17 14:37:00,
2013-08-17 09:38:00,66.9,61.6,30.09,SSW,200,2.0,5.0,83,0.00,,,0.00,468,WeatherCatV1.15B25,2013-08-17 14:38:00,
2013-08-17 09:39:00,67.1,61.8,30.09,SSW,198,0.0,7.0,83,0.00,,,0.00,471,WeatherCatV1.15B25,2013-08-17 14:39:00,
2013-08-17 09:41:00,67.2,61.5,30.09,SSW,196,0.0,7.0,82,0.00,,,0.00,473,WeatherCatV1.15B25,2013-08-17 14:41:00,
2013-08-17 09:42:00,67.3,61.6,30.09,SSW,196,4.0,9.0,82,0.00,,,0.00,475,WeatherCatV1.15B25,2013-08-17 14:42:00,
2013-08-17 09:43:00,67.5,62.1,30.09,SSW,195,3.0,5.0,83,0.00,,,0.00,483,WeatherCatV1.15B25,2013-08-17 14:43:00,
2013-08-17 09:44:00,67.6,61.9,30.09,South,179,4.0,9.0,82,0.00,,,0.00,497,WeatherCatV1.15B25,2013-08-17 14:44:00,
2013-08-17 09:46:00,67.8,62.1,30.09,South,181,9.0,9.0,82,0.00,,,0.00,497,WeatherCatV1.15B25,2013-08-17 14:46:00,
2013-08-17 09:47:00,67.9,62.2,30.09,South,182,5.0,5.0,82,0.00,,,0.00,501,WeatherCatV1.15B25,2013-08-17 14:47:00,
2013-08-17 09:48:00,67.9,62.2,30.09,South,187,3.0,8.0,82,0.00,,,0.00,506,WeatherCatV1.15B25,2013-08-17 14:48:00,
2013-08-17 09:49:00,68.0,61.9,30.09,South,188,3.0,8.0,81,0.00,,,0.00,512,WeatherCatV1.15B25,2013-08-17 14:49:00,
2013-08-17 09:51:00,68.0,61.9,30.09,South,184,2.0,7.0,81,0.00,,,0.00,517,WeatherCatV1.15B25,2013-08-17 14:51:00,
2013-08-17 09:53:00,68.3,62.2,30.09,South,179,3.0,6.0,81,0.00,,,0.00,524,WeatherCatV1.15B25,2013-08-17 14:53:00,
2013-08-17 09:54:00,68.4,62.3,30.09,South,191,4.0,10.0,81,0.00,,,0.00,520,WeatherCatV1.15B25,2013-08-17 14:54:00,
2013-08-17 09:56:00,68.4,62.0,30.09,South,171,5.0,13.0,80,0.00,,,0.00,483,WeatherCatV1.15B25,2013-08-17 14:56:00,
2013-08-17 09:58:00,68.5,62.4,30.09,South,173,3.0,8.0,81,0.00,,,0.00,512,WeatherCatV1.15B25,2013-08-17 14:58:00,
2013-08-17 09:59:00,68.6,62.5,30.09,South,180,11.0,11.0,81,0.00,,,0.00,531,WeatherCatV1.15B25,2013-08-17 14:59:00,
2013-08-17 10:00:00,68.5,62.1,30.09,SSW,198,6.0,13.0,80,0.00,,,0.00,529,WeatherCatV1.15B25,2013-08-17 15:00:00,
2013-08-17 10:01:00,68.5,62.1,30.09,SSW,198,5.0,13.0,80,0.00,,,0.00,533,WeatherCatV1.15B25,2013-08-17 15:01:00,
2013-08-17 10:02:00,68.4,62.0,30.09,SE,145,5.0,12.0,80,0.00,,,0.00,533,WeatherCatV1.15B25,2013-08-17 15:02:00,
2013-08-17 10:03:00,68.5,62.1,30.09,SE,146,2.0,12.0,80,0.00,,,0.00,538,WeatherCatV1.15B25,2013-08-17 15:03:00,
2013-08-17 10:04:00,68.6,62.5,30.09,SSW,200,2.0,11.0,81,0.00,,,0.00,541,WeatherCatV1.15B25,2013-08-17 15:04:00,
2013-08-17 10:05:00,68.7,62.6,30.09,South,183,3.0,10.0,81,0.00,,,0.00,531,WeatherCatV1.15B25,2013-08-17 15:05:00,
2013-08-17 10:06:00,68.8,62.7,30.09,South,183,0.0,4.0,81,0.00,,,0.00,559,WeatherCatV1.15B25,2013-08-17 15:06:00,
2013-08-17 10:07:00,69.0,62.9,30.09,SSE,152,3.0,11.0,81,0.00,,,0.00,559,WeatherCatV1.15B25,2013-08-17 15:07:00,
2013-08-17 10:08:00,69.1,62.7,30.09,SSW,210,1.0,11.0,80,0.00,,,0.00,561,WeatherCatV1.15B25,2013-08-17 15:08:00,
2013-08-17 10:09:00,69.2,62.8,30.09,South,180,1.0,11.0,80,0.00,,,0.00,552,WeatherCatV1.15B25,2013-08-17 15:09:00,
2013-08-17 10:10:00,69.2,62.4,30.09,South,186,3.0,10.0,79,0.00,,,0.00,557,WeatherCatV1.15B25,2013-08-17 15:10:00,
2013-08-17 10:11:00,69.3,62.5,30.09,SSW,198,3.0,10.0,79,0.00,,,0.00,563,WeatherCatV1.15B25,2013-08-17 15:11:00,
2013-08-17 10:12:00,69.4,62.6,30.09,SSW,196,4.0,6.0,79,0.00,,,0.00,570,WeatherCatV1.15B25,2013-08-17 15:12:00,
2013-08-17 10:13:00,69.4,62.6,30.09,South,184,10.0,10.0,79,0.00,,,0.00,578,WeatherCatV1.15B25,2013-08-17 15:13:00,
2013-08-17 10:14:00,69.6,63.1,30.09,South,186,1.0,10.0,80,0.00,,,0.00,582,WeatherCatV1.15B25,2013-08-17 15:14:00,
2013-08-17 10:15:00,69.7,63.2,30.08,WSW,253,4.0,9.0,80,0.00,,,0.00,580,WeatherCatV1.15B25,2013-08-17 15:15:00,
2013-08-17 10:16:00,69.9,63.4,30.09,SW,236,5.0,6.0,80,0.00,,,0.00,585,WeatherCatV1.15B25,2013-08-17 15:16:00,
2013-08-17 10:17:00,70.1,63.3,30.08,SW,233,4.0,6.0,79,0.00,,,0.00,585,WeatherCatV1.15B25,2013-08-17 15:17:00,
2013-08-17 10:18:00,70.1,63.3,30.08,SSW,209,3.0,9.0,79,0.00,,,0.00,582,WeatherCatV1.15B25,2013-08-17 15:18:00,
2013-08-17 10:19:00,70.2,63.4,30.08,SE,125,3.0,9.0,79,0.00,,,0.00,591,WeatherCatV1.15B25,2013-08-17 15:19:00,
2013-08-17 10:20:00,70.3,63.5,30.08,SSW,207,3.0,11.0,79,0.00,,,0.00,591,WeatherCatV1.15B25,2013-08-17 15:20:00,
2013-08-17 10:21:00,70.3,63.1,30.08,South,179,2.0,11.0,78,0.00,,,0.00,599,WeatherCatV1.15B25,2013-08-17 15:21:00,
2013-08-17 10:22:00,70.3,63.1,30.08,South,173,0.0,5.0,78,0.00,,,0.00,599,WeatherCatV1.15B25,2013-08-17 15:22:00,
2013-08-17 10:23:00,70.4,63.2,30.08,South,177,8.0,8.0,78,0.00,,,0.00,610,WeatherCatV1.15B25,2013-08-17 15:23:00,
2013-08-17 10:24:00,70.5,63.3,30.08,South,178,4.0,8.0,78,0.00,,,0.00,613,WeatherCatV1.15B25,2013-08-17 15:24:00,
2013-08-17 10:25:00,70.5,63.3,30.08,South,176,1.0,8.0,78,0.00,,,0.00,626,WeatherCatV1.15B25,2013-08-17 15:25:00,
2013-08-17 10:26:00,70.7,63.9,30.08,South,176,0.0,3.0,79,0.00,,,0.00,622,WeatherCatV1.15B25,2013-08-17 15:26:00,
2013-08-17 10:27:00,70.8,64.0,30.08,SW,219,6.0,9.0,79,0.00,,,0.00,626,WeatherCatV1.15B25,2013-08-17 15:27:00,
2013-08-17 10:28:00,70.8,63.6,30.08,South,173,2.0,9.0,78,0.00,,,0.00,642,WeatherCatV1.15B25,2013-08-17 15:28:00,
2013-08-17 10:29:00,71.0,63.8,30.08,South,175,0.0,4.0,78,0.00,,,0.00,710,WeatherCatV1.15B25,2013-08-17 15:29:00,
2013-08-17 10:30:00,71.0,63.8,30.08,SSW,194,5.0,11.0,78,0.00,,,0.00,710,WeatherCatV1.15B25,2013-08-17 15:30:00,
2013-08-17 10:31:00,71.0,63.8,30.08,South,188,1.0,12.0,78,0.00,,,0.00,726,WeatherCatV1.15B25,2013-08-17 15:31:00,
2013-08-17 10:32:00,71.1,63.5,30.08,South,182,2.0,12.0,77,0.00,,,0.00,726,WeatherCatV1.15B25,2013-08-17 15:32:00,
2013-08-17 10:34:00,71.2,63.6,30.08,South,180,2.0,6.0,77,0.00,,,0.00,726,WeatherCatV1.15B25,2013-08-17 15:34:00,
2013-08-17 10:35:00,71.1,63.5,30.08,South,173,5.0,8.0,77,0.00,,,0.00,726,WeatherCatV1.15B25,2013-08-17 15:35:00,
2013-08-17 10:36:00,70.9,63.3,30.08,ESE,114,10.0,11.0,77,0.00,,,0.00,336,WeatherCatV1.15B25,2013-08-17 15:36:00,
2013-08-17 10:37:00,70.6,63.0,30.08,South,186,2.0,12.0,77,0.00,,,0.00,325,WeatherCatV1.15B25,2013-08-17 15:37:00,
2013-08-17 10:39:00,70.4,62.8,30.08,SSW,192,5.0,15.0,77,0.00,,,0.00,311,WeatherCatV1.15B25,2013-08-17 15:39:00,
2013-08-17 10:40:00,70.1,62.5,30.08,South,190,10.0,15.0,77,0.00,,,0.00,315,WeatherCatV1.15B25,2013-08-17 15:40:00,
2013-08-17 10:41:00,70.0,62.8,30.08,South,173,5.0,10.0,78,0.00,,,0.00,346,WeatherCatV1.15B25,2013-08-17 15:41:00,
2013-08-17 10:42:00,69.9,63.1,30.08,East,85,3.0,6.0,79,0.00,,,0.00,392,WeatherCatV1.15B25,2013-08-17 15:42:00,
2013-08-17 10:44:00,69.9,63.1,30.08,South,180,5.0,10.0,79,0.00,,,0.00,406,WeatherCatV1.15B25,2013-08-17 15:44:00,
2013-08-17 10:45:00,70.0,63.2,30.08,South,180,1.0,10.0,79,0.00,,,0.00,415,WeatherCatV1.15B25,2013-08-17 15:45:00,
2013-08-17 10:46:00,70.1,63.3,30.08,South,176,3.0,3.0,79,0.00,,,0.00,418,WeatherCatV1.15B25,2013-08-17 15:46:00,
2013-08-17 10:48:00,70.3,63.5,30.08,SSW,207,3.0,10.0,79,0.00,,,0.00,483,WeatherCatV1.15B25,2013-08-17 15:48:00,
2013-08-17 10:49:00,70.3,63.5,30.08,South,190,4.0,10.0,79,0.00,,,0.00,483,WeatherCatV1.15B25,2013-08-17 15:49:00,
2013-08-17 10:50:00,70.4,63.2,30.08,SSW,195,4.0,11.0,78,0.00,,,0.00,615,WeatherCatV1.15B25,2013-08-17 15:50:00,
2013-08-17 10:51:00,70.5,63.3,30.08,SSW,209,2.0,11.0,78,0.00,,,0.00,615,WeatherCatV1.15B25,2013-08-17 15:51:00,
2013-08-17 10:52:00,70.5,63.7,30.08,SSW,200,5.0,10.0,79,0.00,,,0.00,589,WeatherCatV1.15B25,2013-08-17 15:52:00,
2013-08-17 10:53:00,70.6,63.8,30.08,South,169,5.0,10.0,79,0.00,,,0.00,589,WeatherCatV1.15B25,2013-08-17 15:53:00,
2013-08-17 10:54:00,70.7,63.5,30.08,South,171,1.0,1.0,78,0.00,,,0.00,338,WeatherCatV1.15B25,2013-08-17 15:54:00,
2013-08-17 10:56:00,70.8,64.0,30.08,SSE,167,4.0,5.0,79,0.00,,,0.00,313,WeatherCatV1.15B25,2013-08-17 15:56:00,
2013-08-17 10:57:00,70.9,64.1,30.08,WSW,242,0.0,6.0,79,0.00,,,0.00,297,WeatherCatV1.15B25,2013-08-17 15:57:00,
2013-08-17 10:58:00,70.9,64.1,30.08,South,174,5.0,6.0,79,0.00,,,0.00,301,WeatherCatV1.15B25,2013-08-17 15:58:00,
2013-08-17 10:59:00,70.7,63.5,30.08,South,172,5.0,13.0,78,0.00,,,0.00,306,WeatherCatV1.15B25,2013-08-17 15:59:00,
2013-08-17 11:01:00,70.6,63.4,30.08,SSW,205,3.0,9.0,78,0.00,,,0.00,385,WeatherCatV1.15B25,2013-08-17 16:01:00,
2013-08-17 11:02:00,70.6,63.4,30.08,South,171,6.0,10.0,78,0.00,,,0.00,800,WeatherCatV1.15B25,2013-08-17 16:02:00,
2013-08-17 11:03:00,70.6,63.4,30.08,SE,138,9.0,10.0,78,0.00,,,0.00,800,WeatherCatV1.15B25,2013-08-17 16:03:00,
2013-08-17 11:04:00,70.7,63.5,30.08,SSW,192,6.0,10.0,78,0.00,,,0.00,766,WeatherCatV1.15B25,2013-08-17 16:04:00,
2013-08-17 11:06:00,71.0,63.8,30.08,South,188,14.0,14.0,78,0.00,,,0.00,747,WeatherCatV1.15B25,2013-08-17 16:06:00,
2013-08-17 11:07:00,71.0,63.8,30.08,South,177,3.0,14.0,78,0.00,,,0.00,728,WeatherCatV1.15B25,2013-08-17 16:07:00,
2013-08-17 11:09:00,71.2,64.0,30.08,South,188,13.0,13.0,78,0.00,,,0.00,724,WeatherCatV1.15B25,2013-08-17 16:09:00,
2013-08-17 11:11:00,71.3,63.3,30.08,SSW,206,1.0,14.0,76,0.00,,,0.00,754,WeatherCatV1.15B25,2013-08-17 16:11:00,
2013-08-17 11:12:00,71.3,63.3,30.08,SSW,205,2.0,14.0,76,0.00,,,0.00,754,WeatherCatV1.15B25,2013-08-17 16:12:00,
2013-08-17 11:14:00,71.3,63.3,30.08,South,190,9.0,15.0,76,0.00,,,0.00,758,WeatherCatV1.15B25,2013-08-17 16:14:00,
2013-08-17 11:17:00,71.3,63.7,30.08,SSW,200,8.0,11.0,77,0.00,,,0.00,571,WeatherCatV1.15B25,2013-08-17 16:17:00,
2013-08-17 11:18:00,71.4,63.8,30.09,SSE,148,9.0,11.0,77,0.00,,,0.00,512,WeatherCatV1.15B25,2013-08-17 16:18:00,
2013-08-17 11:19:00,71.4,63.8,30.09,South,184,6.0,12.0,77,0.00,,,0.00,512,WeatherCatV1.15B25,2013-08-17 16:19:00,
2013-08-17 11:22:00,71.6,63.6,30.08,South,184,9.0,10.0,76,0.00,,,0.00,856,WeatherCatV1.15B25,2013-08-17 16:22:00,
2013-08-17 11:23:00,71.6,63.6,30.08,SSW,212,5.0,14.0,76,0.00,,,0.00,831,WeatherCatV1.15B25,2013-08-17 16:23:00,
2013-08-17 11:24:00,71.7,64.1,30.08,SE,145,9.0,16.0,77,0.00,,,0.00,831,WeatherCatV1.15B25,2013-08-17 16:24:00,
2013-08-17 11:25:00,71.7,64.1,30.08,South,184,6.0,16.0,77,0.00,,,0.00,831,WeatherCatV1.15B25,2013-08-17 16:25:00,
2013-08-17 11:27:00,72.1,64.5,30.08,South,179,7.0,7.0,77,0.00,,,0.00,805,WeatherCatV1.15B25,2013-08-17 16:27:00,
2013-08-17 11:28:00,72.3,64.7,30.08,SW,233,5.0,7.0,77,0.00,,,0.00,805,WeatherCatV1.15B25,2013-08-17 16:28:00,
2013-08-17 11:29:00,72.4,64.8,30.08,SW,229,3.0,9.0,77,0.00,,,0.00,805,WeatherCatV1.15B25,2013-08-17 16:29:00,
2013-08-17 11:30:00,72.4,64.4,30.08,SW,227,3.0,9.0,76,0.00,,,0.00,819,WeatherCatV1.15B25,2013-08-17 16:30:00,
2013-08-17 11:32:00,72.6,64.6,30.08,SW,225,9.0,10.0,76,0.00,,,0.00,800,WeatherCatV1.15B25,2013-08-17 16:32:00,
2013-08-17 11:33:00,72.6,64.6,30.08,SSW,207,0.0,10.0,76,0.00,,,0.00,861,WeatherCatV1.15B25,2013-08-17 16:33:00,
2013-08-17 11:34:00,72.7,65.1,30.08,SE,126,4.0,6.0,77,0.00,,,0.00,861,WeatherCatV1.15B25,2013-08-17 16:34:00,
2013-08-17 11:35:00,72.9,64.9,30.08,SE,126,0.0,6.0,76,0.00,,,0.00,861,WeatherCatV1.15B25,2013-08-17 16:35:00,
2013-08-17 11:37:00,73.1,65.1,30.08,SE,140,5.0,5.0,76,0.00,,,0.00,861,WeatherCatV1.15B25,2013-08-17 16:37:00,
2013-08-17 11:38:00,73.1,65.1,30.08,SSW,202,3.0,11.0,76,0.00,,,0.00,861,WeatherCatV1.15B25,2013-08-17 16:38:00,
2013-08-17 11:39:00,73.1,64.7,30.08,SE,144,0.0,11.0,75,0.00,,,0.00,861,WeatherCatV1.15B25,2013-08-17 16:39:00,
2013-08-17 11:40:00,73.1,65.1,30.08,SSE,155,0.0,9.0,76,0.00,,,0.00,401,WeatherCatV1.15B25,2013-08-17 16:40:00,
2013-08-17 11:42:00,73.2,65.5,30.08,SSW,203,3.0,5.0,77,0.00,,,0.00,939,WeatherCatV1.15B25,2013-08-17 16:42:00,
2013-08-17 11:43:00,73.4,65.7,30.08,SSE,150,4.0,7.0,77,0.00,,,0.00,939,WeatherCatV1.15B25,2013-08-17 16:43:00,
2013-08-17 11:45:00,73.5,65.5,30.08,SSE,150,2.0,9.0,76,0.00,,,0.00,939,WeatherCatV1.15B25,2013-08-17 16:45:00,
2013-08-17 11:46:00,73.6,65.2,30.08,South,176,6.0,10.0,75,0.00,,,0.00,939,WeatherCatV1.15B25,2013-08-17 16:46:00,
2013-08-17 11:47:00,73.6,65.2,30.08,South,191,7.0,10.0,75,0.00,,,0.00,972,WeatherCatV1.15B25,2013-08-17 16:47:00,
2013-08-17 11:48:00,73.6,65.2,30.08,South,191,2.0,10.0,75,0.00,,,0.00,972,WeatherCatV1.15B25,2013-08-17 16:48:00,
2013-08-17 11:50:00,73.6,65.2,30.08,SSE,163,5.0,10.0,75,0.00,,,0.00,972,WeatherCatV1.15B25,2013-08-17 16:50:00,
2013-08-17 11:51:00,73.5,65.1,30.08,SE,141,3.0,7.0,75,0.00,,,0.00,390,WeatherCatV1.15B25,2013-08-17 16:51:00,
2013-08-17 11:53:00,73.5,65.5,30.08,SE,146,0.0,3.0,76,0.00,,,0.00,390,WeatherCatV1.15B25,2013-08-17 16:53:00,
2013-08-17 11:55:00,73.4,65.0,30.07,South,186,5.0,10.0,75,0.00,,,0.00,327,WeatherCatV1.15B25,2013-08-17 16:55:00,
2013-08-17 11:56:00,73.2,64.8,30.08,South,176,3.0,10.0,75,0.00,,,0.00,327,WeatherCatV1.15B25,2013-08-17 16:56:00,
2013-08-17 11:58:00,73.1,64.7,30.07,South,177,0.0,4.0,75,0.00,,,0.00,381,WeatherCatV1.15B25,2013-08-17 16:58:00,
2013-08-17 12:00:00,73.3,65.6,30.07,South,173,0.0,3.0,77,0.00,,,0.00,1005,WeatherCatV1.15B25,2013-08-17 17:00:00,
2013-08-17 12:01:00,73.5,65.8,30.07,South,173,2.0,3.0,77,0.00,,,0.00,381,WeatherCatV1.15B25,2013-08-17 17:01:00,
2013-08-17 12:03:00,73.8,66.1,30.07,SSW,213,3.0,10.0,77,0.00,,,0.00,381,WeatherCatV1.15B25,2013-08-17 17:03:00,
2013-08-17 12:04:00,73.9,65.8,30.07,SSW,213,0.0,10.0,76,0.00,,,0.00,949,WeatherCatV1.15B25,2013-08-17 17:04:00,
2013-08-17 12:06:00,74.0,65.6,30.07,South,187,6.0,11.0,75,0.00,,,0.00,949,WeatherCatV1.15B25,2013-08-17 17:06:00,
2013-08-17 12:08:00,74.0,65.6,30.07,SSW,192,9.0,14.0,75,0.00,,,0.00,979,WeatherCatV1.15B25,2013-08-17 17:08:00,
2013-08-17 12:09:00,73.9,65.1,30.07,SW,223,4.0,13.0,74,0.00,,,0.00,979,WeatherCatV1.15B25,2013-08-17 17:09:00,
2013-08-17 12:11:00,74.0,65.6,30.07,South,182,9.0,14.0,75,0.00,,,0.00,902,WeatherCatV1.15B25,2013-08-17 17:11:00,
2013-08-17 12:12:00,74.0,65.2,30.07,SSW,213,5.0,14.0,74,0.00,,,0.00,902,WeatherCatV1.15B25,2013-08-17 17:12:00,
2013-08-17 12:13:00,73.9,65.1,30.07,SE,133,9.0,13.0,74,0.00,,,0.00,902,WeatherCatV1.15B25,2013-08-17 17:13:00,
2013-08-17 12:14:00,73.8,65.0,30.07,SSW,200,5.0,13.0,74,0.00,,,0.00,355,WeatherCatV1.15B25,2013-08-17 17:14:00,
2013-08-17 12:16:00,73.6,65.2,30.07,SSE,163,3.0,12.0,75,0.00,,,0.00,355,WeatherCatV1.15B25,2013-08-17 17:16:00,
2013-08-17 12:17:00,73.5,65.1,30.07,SSE,165,2.0,10.0,75,0.00,,,0.00,388,WeatherCatV1.15B25,2013-08-17 17:17:00,
2013-08-17 12:18:00,73.5,65.5,30.07,SSW,194,5.0,6.0,76,0.00,,,0.00,388,WeatherCatV1.15B25,2013-08-17 17:18:00,
2013-08-17 12:19:00,73.5,65.5,30.07,SSE,167,2.0,6.0,76,0.00,,,0.00,545,WeatherCatV1.15B25,2013-08-17 17:19:00,
2013-08-17 12:21:00,73.6,65.6,30.07,SSE,165,3.0,10.0,76,0.00,,,0.00,483,WeatherCatV1.15B25,2013-08-17 17:21:00,
2013-08-17 12:22:00,73.8,65.7,30.07,South,169,9.0,9.0,76,0.00,,,0.00,483,WeatherCatV1.15B25,2013-08-17 17:22:00,
2013-08-17 12:23:00,73.9,65.5,30.07,South,169,10.0,11.0,75,0.00,,,0.00,483,WeatherCatV1.15B25,2013-08-17 17:23:00,
2013-08-17 12:24:00,74.1,65.7,30.07,SE,140,4.0,11.0,75,0.00,,,0.00,483,WeatherCatV1.15B25,2013-08-17 17:24:00,
2013-08-17 12:25:00,74.1,65.7,30.07,SSW,207,9.0,11.0,75,0.00,,,0.00,483,WeatherCatV1.15B25,2013-08-17 17:25:00,
2013-08-17 12:26:00,74.1,65.3,30.07,SSW,196,4.0,11.0,74,0.00,,,0.00,541,WeatherCatV1.15B25,2013-08-17 17:26:00,
2013-08-17 12:27:00,74.1,65.7,30.07,SW,227,7.0,7.0,75,0.00,,,0.00,541,WeatherCatV1.15B25,2013-08-17 17:27:00,
2013-08-17 12:28:00,74.1,65.3,30.07,SSE,151,1.0,9.0,74,0.00,,,0.00,541,WeatherCatV1.15B25,2013-08-17 17:28:00,
2013-08-17 12:29:00,74.2,65.4,30.07,South,186,7.0,10.0,74,0.00,,,0.00,541,WeatherCatV1.15B25,2013-08-17 17:29:00,
2013-08-17 12:30:00,74.2,65.4,30.07,SSW,210,7.0,10.0,74,0.00,,,0.00,970,WeatherCatV1.15B25,2013-08-17 17:30:00,
2013-08-17 12:31:00,74.1,65.3,30.06,South,183,1.0,9.0,74,0.00,,,0.00,970,WeatherCatV1.15B25,2013-08-17 17:31:00,
2013-08-17 12:32:00,74.3,65.8,30.07,SSE,153,1.0,7.0,75,0.00,,,0.00,970,WeatherCatV1.15B25,2013-08-17 17:32:00,
2013-08-17 12:33:00,74.4,65.9,30.07,SSW,200,4.0,12.0,75,0.00,,,0.00,970,WeatherCatV1.15B25,2013-08-17 17:33:00,
2013-08-17 12:34:00,74.5,65.7,30.07,SW,221,8.0,13.0,74,0.00,,,0.00,970,WeatherCatV1.15B25,2013-08-17 17:34:00,
2013-08-17 12:35:00,74.5,65.7,30.07,SW,221,1.0,13.0,74,0.00,,,0.00,970,WeatherCatV1.15B25,2013-08-17 17:35:00,
2013-08-17 12:36:00,74.6,65.7,30.07,South,171,1.0,13.0,74,0.00,,,0.00,362,WeatherCatV1.15B25,2013-08-17 17:36:00,
2013-08-17 12:38:00,74.6,65.7,30.07,SSW,194,7.0,9.0,74,0.00,,,0.00,366,WeatherCatV1.15B25,2013-08-17 17:38:00,
2013-08-17 12:40:00,74.6,65.7,30.06,SSW,198,3.0,10.0,74,0.00,,,0.00,366,WeatherCatV1.15B25,2013-08-17 17:40:00,
2013-08-17 12:41:00,74.6,65.4,30.06,South,175,5.0,11.0,73,0.00,,,0.00,366,WeatherCatV1.15B25,2013-08-17 17:41:00,
2013-08-17 12:43:00,74.7,65.5,30.06,SSW,195,6.0,13.0,73,0.00,,,0.00,366,WeatherCatV1.15B25,2013-08-17 17:43:00,
2013-08-17 12:44:00,74.7,65.5,30.06,SSE,160,4.0,13.0,73,0.00,,,0.00,1000,WeatherCatV1.15B25,2013-08-17 17:44:00,
2013-08-17 12:45:00,74.8,65.2,30.06,SSE,168,3.0,13.0,72,0.00,,,0.00,995,WeatherCatV1.15B25,2013-08-17 17:45:00,
2013-08-17 12:47:00,75.1,65.8,30.06,South,188,12.0,14.0,73,0.00,,,0.00,981,WeatherCatV1.15B25,2013-08-17 17:47:00,
2013-08-17 12:48:00,75.3,65.2,30.06,SE,140,15.0,15.0,71,0.00,,,0.00,983,WeatherCatV1.15B25,2013-08-17 17:48:00,
2013-08-17 12:49:00,75.3,65.2,30.06,SSW,211,9.0,15.0,71,0.00,,,0.00,974,WeatherCatV1.15B25,2013-08-17 17:49:00,
2013-08-17 12:50:00,75.2,64.7,30.06,SW,215,4.0,13.0,70,0.00,,,0.00,956,WeatherCatV1.15B25,2013-08-17 17:50:00,
2013-08-17 12:52:00,75.3,65.2,30.06,South,189,3.0,9.0,71,0.00,,,0.00,965,WeatherCatV1.15B25,2013-08-17 17:52:00,
2013-08-17 12:53:00,75.3,65.2,30.06,South,186,9.0,11.0,71,0.00,,,0.00,969,WeatherCatV1.15B25,2013-08-17 17:53:00,
2013-08-17 12:54:00,75.3,64.8,30.06,South,176,5.0,11.0,70,0.00,,,0.00,997,WeatherCatV1.15B25,2013-08-17 17:54:00,
2013-08-17 12:55:00,75.4,65.3,30.06,SSE,149,5.0,10.0,71,0.00,,,0.00,1004,WeatherCatV1.15B25,2013-08-17 17:55:00,
2013-08-17 12:57:00,75.4,65.3,30.06,SSE,165,4.0,14.0,71,0.00,,,0.00,1020,WeatherCatV1.15B25,2013-08-17 17:57:00,
2013-08-17 12:58:00,75.5,65.8,30.06,SW,229,4.0,10.0,72,0.00,,,0.00,1032,WeatherCatV1.15B25,2013-08-17 17:58:00,
2013-08-17 12:59:00,75.6,65.9,30.06,SW,217,12.0,12.0,72,0.00,,,0.00,1028,WeatherCatV1.15B25,2013-08-17 17:59:00,
2013-08-17 13:00:00,75.8,66.1,30.06,SSE,162,2.0,12.0,72,0.00,,,0.00,1028,WeatherCatV1.15B25,2013-08-17 18:00:00,
2013-08-17 13:02:00,76.0,66.3,30.06,SSE,148,3.0,10.0,72,0.00,,,0.00,1046,WeatherCatV1.15B25,2013-08-17 18:02:00,
2013-08-17 13:03:00,76.2,66.1,30.06,SSE,148,0.0,4.0,71,0.00,,,0.00,1046,WeatherCatV1.15B25,2013-08-17 18:03:00,
2013-08-17 13:04:00,76.4,65.9,30.06,ESE,113,6.0,6.0,70,0.00,,,0.00,408,WeatherCatV1.15B25,2013-08-17 18:04:00,
2013-08-17 13:05:00,76.6,66.5,30.06,South,174,6.0,6.0,71,0.00,,,0.00,408,WeatherCatV1.15B25,2013-08-17 18:05:00,
2013-08-17 13:07:00,76.5,65.6,30.05,SE,145,3.0,10.0,69,0.00,,,0.00,408,WeatherCatV1.15B25,2013-08-17 18:07:00,
2013-08-17 13:08:00,76.3,65.4,30.05,South,189,9.0,10.0,69,0.00,,,0.00,367,WeatherCatV1.15B25,2013-08-17 18:08:00,
2013-08-17 13:09:00,76.0,65.1,30.05,SSE,153,1.0,10.0,69,0.00,,,0.00,387,WeatherCatV1.15B25,2013-08-17 18:09:00,
2013-08-17 13:10:00,76.0,65.5,30.05,SSE,156,1.0,7.0,70,0.00,,,0.00,439,WeatherCatV1.15B25,2013-08-17 18:10:00,
2013-08-17 13:11:00,75.9,65.4,30.05,SSE,156,3.0,5.0,70,0.00,,,0.00,494,WeatherCatV1.15B25,2013-08-17 18:11:00,
2013-08-17 13:12:00,75.9,65.8,30.05,SSW,206,7.0,8.0,71,0.00,,,0.00,497,WeatherCatV1.15B25,2013-08-17 18:12:00,
2013-08-17 13:13:00,75.7,65.6,30.05,SSW,198,5.0,8.0,71,0.00,,,0.00,434,WeatherCatV1.15B25,2013-08-17 18:13:00,
2013-08-17 13:14:00,75.6,65.5,30.05,SSW,198,4.0,7.0,71,0.00,,,0.00,323,WeatherCatV1.15B25,2013-08-17 18:14:00,
2013-08-17 13:16:00,75.5,65.0,30.05,SSE,155,5.0,9.0,70,0.00,,,0.00,288,WeatherCatV1.15B25,2013-08-17 18:16:00,
2013-08-17 13:17:00,75.1,65.0,30.05,SSE,149,4.0,11.0,71,0.00,,,0.00,278,WeatherCatV1.15B25,2013-08-17 18:17:00,
2013-08-17 13:18:00,74.9,64.8,30.05,South,175,6.0,11.0,71,0.00,,,0.00,279,WeatherCatV1.15B25,2013-08-17 18:18:00,
2013-08-17 13:19:00,74.6,64.6,30.05,SE,132,0.0,11.0,71,0.00,,,0.00,288,WeatherCatV1.15B25,2013-08-17 18:19:00,
2013-08-17 13:21:00,74.4,64.8,30.05,South,191,6.0,9.0,72,0.00,,,0.00,306,WeatherCatV1.15B25,2013-08-17 18:21:00,
2013-08-17 13:22:00,74.3,65.1,30.05,South,186,0.0,9.0,73,0.00,,,0.00,355,WeatherCatV1.15B25,2013-08-17 18:22:00,
2013-08-17 13:23:00,74.2,65.0,30.05,South,177,3.0,6.0,73,0.00,,,0.00,383,WeatherCatV1.15B25,2013-08-17 18:23:00,
2013-08-17 13:24:00,74.2,65.0,30.05,SSW,211,5.0,11.0,73,0.00,,,0.00,383,WeatherCatV1.15B25,2013-08-17 18:24:00,
2013-08-17 13:26:00,74.2,65.0,30.05,SSW,212,3.0,11.0,73,0.00,,,0.00,355,WeatherCatV1.15B25,2013-08-17 18:26:00,
2013-08-17 13:27:00,74.2,64.6,30.05,South,171,5.0,9.0,72,0.00,,,0.00,439,WeatherCatV1.15B25,2013-08-17 18:27:00,
2013-08-17 13:29:00,74.2,65.0,30.05,SSW,196,6.0,6.0,73,0.00,,,0.00,439,WeatherCatV1.15B25,2013-08-17 18:29:00,
2013-08-17 13:30:00,74.3,65.1,30.05,South,182,0.0,6.0,73,0.00,,,0.00,439,WeatherCatV1.15B25,2013-08-17 18:30:00,
2013-08-17 13:31:00,74.4,64.8,30.05,South,183,6.0,13.0,72,0.00,,,0.00,439,WeatherCatV1.15B25,2013-08-17 18:31:00,
2013-08-17 13:33:00,74.7,64.7,30.05,SE,138,13.0,14.0,71,0.00,,,0.00,1141,WeatherCatV1.15B25,2013-08-17 18:33:00,
2013-08-17 13:34:00,74.9,65.2,30.05,SE,128,12.0,14.0,72,0.00,,,0.00,1141,WeatherCatV1.15B25,2013-08-17 18:34:00,
2013-08-17 13:35:00,75.1,65.0,30.05,SSE,164,5.0,14.0,71,0.00,,,0.00,1141,WeatherCatV1.15B25,2013-08-17 18:35:00,
2013-08-17 13:36:00,75.1,64.6,30.04,SSE,157,5.0,12.0,70,0.00,,,0.00,427,WeatherCatV1.15B25,2013-08-17 18:36:00,
2013-08-17 13:38:00,75.3,65.2,30.05,WSW,241,2.0,10.0,71,0.00,,,0.00,434,WeatherCatV1.15B25,2013-08-17 18:38:00,
2013-08-17 13:39:00,75.2,65.1,30.05,SSE,162,3.0,10.0,71,0.00,,,0.00,448,WeatherCatV1.15B25,2013-08-17 18:39:00,
2013-08-17 13:40:00,75.2,65.1,30.05,SSW,192,4.0,7.0,71,0.00,,,0.00,441,WeatherCatV1.15B25,2013-08-17 18:40:00,
2013-08-17 13:41:00,75.1,65.0,30.05,SSE,148,3.0,11.0,71,0.00,,,0.00,429,WeatherCatV1.15B25,2013-08-17 18:41:00,
2013-08-17 13:43:00,74.9,64.8,30.05,ESE,109,1.0,14.0,71,0.00,,,0.00,390,WeatherCatV1.15B25,2013-08-17 18:43:00,
2013-08-17 13:44:00,74.9,64.8,30.05,ESE,109,0.0,4.0,71,0.00,,,0.00,390,WeatherCatV1.15B25,2013-08-17 18:44:00,
2013-08-17 13:45:00,74.9,64.8,30.05,SE,128,2.0,5.0,71,0.00,,,0.00,413,WeatherCatV1.15B25,2013-08-17 18:45:00,
2013-08-17 13:46:00,74.9,64.8,30.05,SSE,167,0.0,6.0,71,0.00,,,0.00,413,WeatherCatV1.15B25,2013-08-17 18:46:00,
2013-08-17 13:49:00,75.3,65.6,30.04,SSE,163,4.0,13.0,72,0.00,,,0.00,1020,WeatherCatV1.15B25,2013-08-17 18:49:00,
2013-08-17 13:50:00,75.6,65.1,30.04,SSE,148,5.0,14.0,70,0.00,,,0.00,1020,WeatherCatV1.15B25,2013-08-17 18:50:00,
2013-08-17 13:51:00,75.8,65.3,30.04,SSW,202,6.0,6.0,70,0.00,,,0.00,1111,WeatherCatV1.15B25,2013-08-17 18:51:00,
2013-08-17 13:52:00,76.0,65.5,30.04,SE,142,6.0,10.0,70,0.00,,,0.00,1111,WeatherCatV1.15B25,2013-08-17 18:52:00,
2013-08-17 13:54:00,76.4,66.3,30.04,South,175,1.0,3.0,71,0.00,,,0.00,856,WeatherCatV1.15B25,2013-08-17 18:54:00,
2013-08-17 13:55:00,76.7,66.2,30.04,South,186,3.0,5.0,70,0.00,,,0.00,856,WeatherCatV1.15B25,2013-08-17 18:55:00,
2013-08-17 13:56:00,76.8,65.4,30.04,SW,219,10.0,13.0,68,0.00,,,0.00,631,WeatherCatV1.15B25,2013-08-17 18:56:00,
2013-08-17 13:57:00,76.7,64.9,30.04,SSW,210,7.0,18.0,67,0.00,,,0.00,631,WeatherCatV1.15B25,2013-08-17 18:57:00,
2013-08-17 13:59:00,76.5,64.7,30.04,South,176,5.0,14.0,67,0.00,,,0.00,603,WeatherCatV1.15B25,2013-08-17 18:59:00,
2013-08-17 14:00:00,76.2,64.4,30.04,South,182,6.0,14.0,67,0.00,,,0.00,598,WeatherCatV1.15B25,2013-08-17 19:00:00,
2013-08-17 14:02:00,76.1,64.8,30.04,ESE,103,4.0,11.0,68,0.00,,,0.00,598,WeatherCatV1.15B25,2013-08-17 19:02:00,
2013-08-17 14:04:00,76.3,65.4,30.04,SW,214,9.0,11.0,69,0.00,,,0.00,554,WeatherCatV1.15B25,2013-08-17 19:04:00,
2013-08-17 14:06:00,76.3,64.9,30.04,SE,132,6.0,11.0,68,0.00,,,0.00,564,WeatherCatV1.15B25,2013-08-17 19:06:00,
2013-08-17 14:07:00,76.3,64.9,30.04,SE,127,2.0,11.0,68,0.00,,,0.00,642,WeatherCatV1.15B25,2013-08-17 19:07:00,
2013-08-17 14:08:00,76.4,65.5,30.04,SSW,209,5.0,5.0,69,0.00,,,0.00,974,WeatherCatV1.15B25,2013-08-17 19:08:00,
2013-08-17 14:09:00,76.5,64.7,30.04,South,191,5.0,19.0,67,0.00,,,0.00,974,WeatherCatV1.15B25,2013-08-17 19:09:00,
2013-08-17 14:10:00,76.6,65.2,30.04,South,181,0.0,19.0,68,0.00,,,0.00,974,WeatherCatV1.15B25,2013-08-17 19:10:00,
2013-08-17 14:11:00,76.7,65.3,30.04,SSW,211,1.0,7.0,68,0.00,,,0.00,974,WeatherCatV1.15B25,2013-08-17 19:11:00,
2013-08-17 14:12:00,76.8,65.4,30.04,SSE,165,0.0,6.0,68,0.00,,,0.00,707,WeatherCatV1.15B25,2013-08-17 19:12:00,
2013-08-17 14:13:00,76.9,65.5,30.03,South,171,6.0,6.0,68,0.00,,,0.00,624,WeatherCatV1.15B25,2013-08-17 19:13:00,
2013-08-17 14:14:00,76.9,65.5,30.03,SE,129,11.0,11.0,68,0.00,,,0.00,624,WeatherCatV1.15B25,2013-08-17 19:14:00,
2013-08-17 14:15:00,76.9,65.5,30.03,South,169,6.0,11.0,68,0.00,,,0.00,624,WeatherCatV1.15B25,2013-08-17 19:15:00,
2013-08-17 14:16:00,76.7,64.9,30.03,SSE,148,4.0,9.0,67,0.00,,,0.00,624,WeatherCatV1.15B25,2013-08-17 19:16:00,
2013-08-17 14:17:00,76.6,64.8,30.03,South,175,5.0,12.0,67,0.00,,,0.00,624,WeatherCatV1.15B25,2013-08-17 19:17:00,
2013-08-17 14:18:00,76.6,64.8,30.03,SSW,207,5.0,12.0,67,0.00,,,0.00,1058,WeatherCatV1.15B25,2013-08-17 19:18:00,
2013-08-17 14:20:00,76.6,64.8,30.03,South,175,6.0,13.0,67,0.00,,,0.00,1009,WeatherCatV1.15B25,2013-08-17 19:20:00,
2013-08-17 14:21:00,76.7,65.7,30.03,South,174,4.0,7.0,69,0.00,,,0.00,1013,WeatherCatV1.15B25,2013-08-17 19:21:00,
2013-08-17 14:22:00,76.8,65.8,30.03,ESE,115,1.0,5.0,69,0.00,,,0.00,1013,WeatherCatV1.15B25,2013-08-17 19:22:00,
2013-08-17 14:23:00,77.1,66.1,30.03,ESE,116,0.0,4.0,69,0.00,,,0.00,1004,WeatherCatV1.15B25,2013-08-17 19:23:00,
2013-08-17 14:25:00,77.6,66.2,30.03,SE,132,2.0,10.0,68,0.00,,,0.00,918,WeatherCatV1.15B25,2013-08-17 19:25:00,
2013-08-17 14:26:00,77.5,65.2,30.03,WSW,238,6.0,14.0,66,0.00,,,0.00,918,WeatherCatV1.15B25,2013-08-17 19:26:00,
2013-08-17 14:27:00,77.3,65.0,30.03,South,191,6.0,14.0,66,0.00,,,0.00,485,WeatherCatV1.15B25,2013-08-17 19:27:00,
2013-08-17 14:29:00,76.9,65.1,30.03,SSW,192,5.0,16.0,67,0.00,,,0.00,424,WeatherCatV1.15B25,2013-08-17 19:29:00,
2013-08-17 14:30:00,76.7,64.9,30.03,SSW,197,9.0,16.0,67,0.00,,,0.00,424,WeatherCatV1.15B25,2013-08-17 19:30:00,
2013-08-17 14:31:00,76.5,65.1,30.03,SE,146,3.0,14.0,68,0.00,,,0.00,406,WeatherCatV1.15B25,2013-08-17 19:31:00,
2013-08-17 14:32:00,76.5,65.1,30.03,SE,146,4.0,10.0,68,0.00,,,0.00,406,WeatherCatV1.15B25,2013-08-17 19:32:00,
2013-08-17 14:34:00,76.4,65.9,30.03,SSW,196,9.0,9.0,70,0.00,,,0.00,425,WeatherCatV1.15B25,2013-08-17 19:34:00,
2013-08-17 14:35:00,76.3,64.9,30.03,SSE,164,6.0,12.0,68,0.00,,,0.00,418,WeatherCatV1.15B25,2013-08-17 19:35:00,
2013-08-17 14:37:00,76.1,64.8,30.03,South,182,2.0,7.0,68,0.00,,,0.00,392,WeatherCatV1.15B25,2013-08-17 19:37:00,
2013-08-17 14:39:00,76.0,65.1,30.03,SE,134,3.0,12.0,69,0.00,,,0.00,441,WeatherCatV1.15B25,2013-08-17 19:39:00,
2013-08-17 14:41:00,76.0,65.1,30.03,SE,142,7.0,10.0,69,0.00,,,0.00,519,WeatherCatV1.15B25,2013-08-17 19:41:00,
2013-08-17 14:42:00,76.0,65.1,30.03,SSE,167,6.0,9.0,69,0.00,,,0.00,487,WeatherCatV1.15B25,2013-08-17 19:42:00,
2013-08-17 14:44:00,75.7,63.9,30.03,SSE,156,5.0,17.0,67,0.00,,,0.00,366,WeatherCatV1.15B25,2013-08-17 19:44:00,
2013-08-17 14:46:00,75.6,63.9,30.03,SE,128,7.0,13.0,67,0.00,,,0.00,359,WeatherCatV1.15B25,2013-08-17 19:46:00,
2013-08-17 14:47:00,75.5,64.2,30.03,SSW,197,6.0,13.0,68,0.00,,,0.00,367,WeatherCatV1.15B25,2013-08-17 19:47:00,
2013-08-17 14:48:00,75.4,64.1,30.03,SW,218,2.0,12.0,68,0.00,,,0.00,397,WeatherCatV1.15B25,2013-08-17 19:48:00,
2013-08-17 14:50:00,75.4,64.5,30.03,SSW,204,10.0,11.0,69,0.00,,,0.00,482,WeatherCatV1.15B25,2013-08-17 19:50:00,
2013-08-17 14:51:00,75.4,64.5,30.03,SW,215,2.0,11.0,69,0.00,,,0.00,499,WeatherCatV1.15B25,2013-08-17 19:51:00,
2013-08-17 14:52:00,75.4,64.9,30.03,SW,219,1.0,7.0,70,0.00,,,0.00,519,WeatherCatV1.15B25,2013-08-17 19:52:00,
2013-08-17 14:53:00,75.6,65.1,30.03,SSE,157,0.0,7.0,70,0.00,,,0.00,483,WeatherCatV1.15B25,2013-08-17 19:53:00,
2013-08-17 14:55:00,75.8,65.3,30.03,SSE,157,0.0,5.0,70,0.00,,,0.00,364,WeatherCatV1.15B25,2013-08-17 19:55:00,
2013-08-17 14:56:00,76.0,65.5,30.03,SSE,158,1.0,2.0,70,0.00,,,0.00,323,WeatherCatV1.15B25,2013-08-17 19:56:00,
2013-08-17 14:57:00,76.2,66.1,30.03,SSE,157,0.0,3.0,71,0.00,,,0.00,315,WeatherCatV1.15B25,2013-08-17 19:57:00,
2013-08-17 14:58:00,76.3,65.8,30.03,SSE,157,0.0,3.0,70,0.00,,,0.00,343,WeatherCatV1.15B25,2013-08-17 19:58:00,
2013-08-17 15:00:00,76.6,66.1,30.03,South,181,5.0,9.0,70,0.00,,,0.00,330,WeatherCatV1.15B25,2013-08-17 20:00:00,
2013-08-17 15:01:00,76.5,65.1,30.03,ESE,114,1.0,9.0,68,0.00,,,0.00,350,WeatherCatV1.15B25,2013-08-17 20:01:00,
2013-08-17 15:02:00,76.4,65.0,30.03,SSW,211,3.0,9.0,68,0.00,,,0.00,355,WeatherCatV1.15B25,2013-08-17 20:02:00,
2013-08-17 15:03:00,76.4,65.5,30.03,SSW,195,3.0,7.0,69,0.00,,,0.00,352,WeatherCatV1.15B25,2013-08-17 20:03:00,
2013-08-17 15:05:00,76.1,65.2,30.03,SE,128,4.0,7.0,69,0.00,,,0.00,345,WeatherCatV1.15B25,2013-08-17 20:05:00,
2013-08-17 15:06:00,76.1,65.2,30.03,South,189,5.0,9.0,69,0.00,,,0.00,346,WeatherCatV1.15B25,2013-08-17 20:06:00,
2013-08-17 15:08:00,76.0,65.5,30.02,SSE,167,4.0,6.0,70,0.00,,,0.00,362,WeatherCatV1.15B25,2013-08-17 20:08:00,
2013-08-17 15:10:00,75.8,64.9,30.03,SSE,159,2.0,6.0,69,0.00,,,0.00,367,WeatherCatV1.15B25,2013-08-17 20:10:00,
2013-08-17 15:11:00,75.9,65.0,30.03,SSE,159,1.0,4.0,69,0.00,,,0.00,359,WeatherCatV1.15B25,2013-08-17 20:11:00,
2013-08-17 15:12:00,75.9,65.0,30.03,SSE,157,2.0,4.0,69,0.00,,,0.00,348,WeatherCatV1.15B25,2013-08-17 20:12:00,
2013-08-17 15:13:00,75.9,64.6,30.03,SE,144,3.0,10.0,68,0.00,,,0.00,343,WeatherCatV1.15B25,2013-08-17 20:13:00,
2013-08-17 15:15:00,75.8,64.0,30.03,SE,126,7.0,10.0,67,0.00,,,0.00,352,WeatherCatV1.15B25,2013-08-17 20:15:00,
2013-08-17 15:16:00,75.7,63.9,30.03,SSE,153,2.0,11.0,67,0.00,,,0.00,359,WeatherCatV1.15B25,2013-08-17 20:16:00,
2013-08-17 15:17:00,75.7,63.9,30.03,SSE,153,0.0,11.0,67,0.00,,,0.00,369,WeatherCatV1.15B25,2013-08-17 20:17:00,
2013-08-17 15:18:00,75.7,64.4,30.03,South,172,6.0,7.0,68,0.00,,,0.00,410,WeatherCatV1.15B25,2013-08-17 20:18:00,
2013-08-17 15:19:00,75.7,64.4,30.03,SSE,156,5.0,9.0,68,0.00,,,0.00,410,WeatherCatV1.15B25,2013-08-17 20:19:00,
2013-08-17 15:20:00,75.8,64.5,30.03,ESE,115,3.0,10.0,68,0.00,,,0.00,432,WeatherCatV1.15B25,2013-08-17 20:20:00,
2013-08-17 15:21:00,75.8,64.5,30.03,ESE,115,2.0,10.0,68,0.00,,,0.00,415,WeatherCatV1.15B25,2013-08-17 20:21:00,
2013-08-17 15:22:00,75.8,64.9,30.02,ESE,115,1.0,10.0,69,0.00,,,0.00,415,WeatherCatV1.15B25,2013-08-17 20:22:00,
2013-08-17 15:23:00,75.9,64.6,30.02,SE,139,0.0,5.0,68,0.00,,,0.00,367,WeatherCatV1.15B25,2013-08-17 20:23:00,
2013-08-17 15:24:00,75.9,65.0,30.02,SE,126,4.0,6.0,69,0.00,,,0.00,346,WeatherCatV1.15B25,2013-08-17 20:24:00,
2013-08-17 15:25:00,75.9,64.6,30.02,ESE,109,0.0,11.0,68,0.00,,,0.00,329,WeatherCatV1.15B25,2013-08-17 20:25:00,
2013-08-17 15:26:00,75.9,65.0,30.02,ESE,111,4.0,4.0,69,0.00,,,0.00,318,WeatherCatV1.15B25,2013-08-17 20:26:00,
2013-08-17 15:27:00,75.9,65.0,30.02,South,180,10.0,13.0,69,0.00,,,0.00,313,WeatherCatV1.15B25,2013-08-17 20:27:00,
2013-08-17 15:28:00,75.9,64.6,30.03,SSW,199,6.0,13.0,68,0.00,,,0.00,313,WeatherCatV1.15B25,2013-08-17 20:28:00,
2013-08-17 15:29:00,75.8,64.0,30.02,ESE,114,3.0,11.0,67,0.00,,,0.00,315,WeatherCatV1.15B25,2013-08-17 20:29:00,
2013-08-17 15:31:00,75.8,64.5,30.02,ESE,114,0.0,5.0,68,0.00,,,0.00,309,WeatherCatV1.15B25,2013-08-17 20:31:00,
2013-08-17 15:32:00,75.8,64.5,30.02,SSE,159,3.0,6.0,68,0.00,,,0.00,311,WeatherCatV1.15B25,2013-08-17 20:32:00,
2013-08-17 15:34:00,75.8,64.9,30.02,East,88,0.0,10.0,69,0.00,,,0.00,327,WeatherCatV1.15B25,2013-08-17 20:34:00,
2013-08-17 15:36:00,75.8,64.9,30.02,ESE,121,6.0,10.0,69,0.00,,,0.00,336,WeatherCatV1.15B25,2013-08-17 20:36:00,
2013-08-17 15:37:00,75.6,64.7,30.02,SSE,165,6.0,10.0,69,0.00,,,0.00,330,WeatherCatV1.15B25,2013-08-17 20:37:00,
2013-08-17 15:39:00,75.5,65.0,30.02,SE,125,7.0,9.0,70,0.00,,,0.00,360,WeatherCatV1.15B25,2013-08-17 20:39:00,
2013-08-17 15:41:00,75.4,64.9,30.02,ESE,116,1.0,7.0,70,0.00,,,0.00,438,WeatherCatV1.15B25,2013-08-17 20:41:00,
2013-08-17 15:42:00,75.5,65.4,30.02,SE,129,4.0,6.0,71,0.00,,,0.00,476,WeatherCatV1.15B25,2013-08-17 20:42:00,
2013-08-17 15:44:00,75.6,65.1,30.02,SE,135,2.0,6.0,70,0.00,,,0.00,446,WeatherCatV1.15B25,2013-08-17 20:44:00,
2013-08-17 15:46:00,75.8,64.9,30.02,ESE,117,2.0,11.0,69,0.00,,,0.00,403,WeatherCatV1.15B25,2013-08-17 20:46:00,
2013-08-17 15:48:00,75.8,64.5,30.02,SE,144,3.0,10.0,68,0.00,,,0.00,401,WeatherCatV1.15B25,2013-08-17 20:48:00,
2013-08-17 15:49:00,75.7,64.8,30.02,SE,126,6.0,12.0,69,0.00,,,0.00,376,WeatherCatV1.15B25,2013-08-17 20:49:00,
2013-08-17 15:51:00,75.7,65.6,30.02,East,87,7.0,7.0,71,0.00,,,0.00,366,WeatherCatV1.15B25,2013-08-17 20:51:00,
2013-08-17 15:53:00,75.6,65.1,30.02,SE,126,11.0,11.0,70,0.00,,,0.00,353,WeatherCatV1.15B25,2013-08-17 20:53:00,
2013-08-17 15:55:00,75.5,65.0,30.02,SE,142,10.0,11.0,70,0.00,,,0.00,343,WeatherCatV1.15B25,2013-08-17 20:55:00,
2013-08-17 15:56:00,75.3,64.8,30.02,ESE,115,3.0,8.0,70,0.00,,,0.00,334,WeatherCatV1.15B25,2013-08-17 20:56:00,
2013-08-17 15:58:00,75.2,64.7,30.02,SE,128,1.0,8.0,70,0.00,,,0.00,353,WeatherCatV1.15B25,2013-08-17 20:58:00,
2013-08-17 16:00:00,75.2,65.1,30.02,SSE,155,10.0,12.0,71,0.00,,,0.00,468,WeatherCatV1.15B25,2013-08-17 21:00:00,
2013-08-17 16:01:00,75.1,65.0,30.02,East,98,0.0,6.0,71,0.00,,,0.00,499,WeatherCatV1.15B25,2013-08-17 21:01:00,
2013-08-17 16:03:00,75.3,65.2,30.02,SE,140,5.0,8.0,71,0.00,,,0.00,612,WeatherCatV1.15B25,2013-08-17 21:03:00,
2013-08-17 16:05:00,75.5,65.8,30.02,ESE,117,2.0,10.0,72,0.00,,,0.00,612,WeatherCatV1.15B25,2013-08-17 21:05:00,
2013-08-17 16:06:00,75.7,65.6,30.02,ESE,120,10.0,10.0,71,0.00,,,0.00,503,WeatherCatV1.15B25,2013-08-17 21:06:00,
2013-08-17 16:08:00,75.7,65.2,30.02,South,184,3.0,15.0,70,0.00,,,0.00,473,WeatherCatV1.15B25,2013-08-17 21:08:00,
2013-08-17 16:10:00,75.6,65.1,30.02,SSE,151,4.0,11.0,70,0.00,,,0.00,385,WeatherCatV1.15B25,2013-08-17 21:10:00,
2013-08-17 16:11:00,75.6,65.5,30.02,SSE,151,4.0,11.0,71,0.00,,,0.00,385,WeatherCatV1.15B25,2013-08-17 21:11:00,
2013-08-17 16:13:00,75.6,65.1,30.01,ESE,116,8.0,12.0,70,0.00,,,0.00,438,WeatherCatV1.15B25,2013-08-17 21:13:00,
2013-08-17 16:14:00,75.6,65.5,30.01,South,173,3.0,11.0,71,0.00,,,0.00,348,WeatherCatV1.15B25,2013-08-17 21:14:00,
2013-08-17 16:15:00,75.6,65.1,30.01,SSE,156,4.0,9.0,70,0.00,,,0.00,327,WeatherCatV1.15B25,2013-08-17 21:15:00,
2013-08-17 16:16:00,75.4,65.3,30.01,SE,130,6.0,12.0,71,0.00,,,0.00,322,WeatherCatV1.15B25,2013-08-17 21:16:00,
2013-08-17 16:18:00,75.3,65.2,30.01,ESE,111,11.0,11.0,71,0.00,,,0.00,329,WeatherCatV1.15B25,2013-08-17 21:18:00,
2013-08-17 16:19:00,75.3,65.2,30.01,SSW,192,0.0,11.0,71,0.00,,,0.00,338,WeatherCatV1.15B25,2013-08-17 21:19:00,
2013-08-17 16:20:00,75.2,65.1,30.01,SE,129,3.0,11.0,71,0.00,,,0.00,338,WeatherCatV1.15B25,2013-08-17 21:20:00,
2013-08-17 16:21:00,75.3,65.2,30.01,SE,129,1.0,1.0,71,0.00,,,0.00,353,WeatherCatV1.15B25,2013-08-17 21:21:00,
2013-08-17 16:22:00,75.3,65.6,30.01,SSE,157,4.0,6.0,72,0.00,,,0.00,353,WeatherCatV1.15B25,2013-08-17 21:22:00,
2013-08-17 16:23:00,75.4,65.7,30.01,SE,138,4.0,6.0,72,0.00,,,0.00,302,WeatherCatV1.15B25,2013-08-17 21:23:00,
2013-08-17 16:24:00,75.4,65.7,30.01,SE,138,2.0,4.0,72,0.00,,,0.00,295,WeatherCatV1.15B25,2013-08-17 21:24:00,
2013-08-17 16:25:00,75.5,65.8,30.01,SE,139,0.0,2.0,72,0.00,,,0.00,295,WeatherCatV1.15B25,2013-08-17 21:25:00,
2013-08-17 16:26:00,75.6,65.9,30.01,SE,138,1.0,3.0,72,0.00,,,0.00,281,WeatherCatV1.15B25,2013-08-17 21:26:00,
2013-08-17 16:27:00,75.7,66.0,30.01,SSE,148,5.0,5.0,72,0.00,,,0.00,271,WeatherCatV1.15B25,2013-08-17 21:27:00,
2013-08-17 16:28:00,75.8,66.1,30.01,SE,126,5.0,5.0,72,0.00,,,0.00,251,WeatherCatV1.15B25,2013-08-17 21:28:00,
2013-08-17 16:29:00,75.7,65.6,30.01,ESE,105,1.0,6.0,71,0.00,,,0.00,230,WeatherCatV1.15B25,2013-08-17 21:29:00,
2013-08-17 16:30:00,75.6,65.5,30.01,SE,129,4.0,6.0,71,0.00,,,0.00,230,WeatherCatV1.15B25,2013-08-17 21:30:00,
2013-08-17 16:31:00,75.5,65.4,30.01,SE,130,0.0,6.0,71,0.00,,,0.00,220,WeatherCatV1.15B25,2013-08-17 21:31:00,
2013-08-17 16:32:00,75.5,65.4,30.01,SSE,147,2.0,6.0,71,0.00,,,0.00,220,WeatherCatV1.15B25,2013-08-17 21:32:00,
2013-08-17 16:33:00,75.5,65.4,30.01,SE,138,6.0,7.0,71,0.00,,,0.00,221,WeatherCatV1.15B25,2013-08-17 21:33:00,
2013-08-17 16:34:00,75.4,65.3,30.01,SE,140,10.0,11.0,71,0.00,,,0.00,229,WeatherCatV1.15B25,2013-08-17 21:34:00,
2013-08-17 16:35:00,75.3,64.8,30.01,ESE,119,9.0,11.0,70,0.00,,,0.00,237,WeatherCatV1.15B25,2013-08-17 21:35:00,
2013-08-17 16:36:00,75.1,64.6,30.01,SE,126,3.0,11.0,70,0.00,,,0.00,244,WeatherCatV1.15B25,2013-08-17 21:36:00,
2013-08-17 16:37:00,75.1,65.0,30.01,SE,126,0.0,9.0,71,0.00,,,0.00,246,WeatherCatV1.15B25,2013-08-17 21:37:00,
2013-08-17 16:38:00,75.1,65.0,30.01,SSE,158,5.0,6.0,71,0.00,,,0.00,250,WeatherCatV1.15B25,2013-08-17 21:38:00,
2013-08-17 16:40:00,75.1,65.0,30.01,SE,126,12.0,12.0,71,0.00,,,0.00,253,WeatherCatV1.15B25,2013-08-17 21:40:00,
2013-08-17 16:41:00,75.0,64.5,30.01,SSE,150,5.0,12.0,70,0.00,,,0.00,251,WeatherCatV1.15B25,2013-08-17 21:41:00,
2013-08-17 16:42:00,75.0,64.9,30.01,SE,138,6.0,11.0,71,0.00,,,0.00,251,WeatherCatV1.15B25,2013-08-17 21:42:00,
2013-08-17 16:44:00,74.9,64.8,30.02,SE,138,6.0,8.0,71,0.00,,,0.00,239,WeatherCatV1.15B25,2013-08-17 21:44:00,
2013-08-17 16:45:00,74.9,64.8,30.02,SSE,168,5.0,11.0,71,0.00,,,0.00,232,WeatherCatV1.15B25,2013-08-17 21:45:00,
2013-08-17 16:46:00,74.8,65.2,30.01,South,188,5.0,12.0,72,0.00,,,0.00,236,WeatherCatV1.15B25,2013-08-17 21:46:00,
2013-08-17 16:47:00,74.8,65.2,30.01,East,97,4.0,6.0,72,0.00,,,0.00,236,WeatherCatV1.15B25,2013-08-17 21:47:00,
2013-08-17 16:49:00,74.8,64.8,30.01,SSE,149,3.0,11.0,71,0.00,,,0.00,234,WeatherCatV1.15B25,2013-08-17 21:49:00,
2013-08-17 16:50:00,74.8,64.8,30.01,ESE,117,3.0,11.0,71,0.00,,,0.00,237,WeatherCatV1.15B25,2013-08-17 21:50:00,
2013-08-17 16:51:00,74.8,64.8,30.01,SE,140,5.0,5.0,71,0.00,,,0.00,237,WeatherCatV1.15B25,2013-08-17 21:51:00,
2013-08-17 16:52:00,74.8,64.8,30.01,SE,146,10.0,10.0,71,0.00,,,0.00,237,WeatherCatV1.15B25,2013-08-17 21:52:00,
2013-08-17 16:54:00,74.8,64.8,30.01,South,169,2.0,10.0,71,0.00,,,0.00,236,WeatherCatV1.15B25,2013-08-17 21:54:00,
2013-08-17 16:55:00,74.8,65.2,30.01,SE,145,3.0,9.0,72,0.00,,,0.00,230,WeatherCatV1.15B25,2013-08-17 21:55:00,
2013-08-17 16:57:00,74.8,65.2,30.01,SSE,155,1.0,5.0,72,0.00,,,0.00,227,WeatherCatV1.15B25,2013-08-17 21:57:00,
2013-08-17 16:59:00,74.8,64.8,30.01,SE,138,2.0,7.0,71,0.00,,,0.00,227,WeatherCatV1.15B25,2013-08-17 21:59:00,
2013-08-17 17:00:00,74.8,64.8,30.01,SE,144,1.0,7.0,71,0.00,,,0.00,229,WeatherCatV1.15B25,2013-08-17 22:00:00,
2013-08-17 17:02:00,74.9,64.8,30.01,SE,139,13.0,13.0,71,0.00,,,0.00,243,WeatherCatV1.15B25,2013-08-17 22:02:00,
2013-08-17 17:03:00,74.9,64.8,30.01,South,188,3.0,13.0,71,0.00,,,0.00,251,WeatherCatV1.15B25,2013-08-17 22:03:00,
2013-08-17 17:04:00,74.9,65.2,30.01,South,188,1.0,1.0,72,0.00,,,0.00,257,WeatherCatV1.15B25,2013-08-17 22:04:00,
2013-08-17 17:05:00,74.9,65.2,30.01,South,188,0.0,1.0,72,0.00,,,0.00,257,WeatherCatV1.15B25,2013-08-17 22:05:00,
2013-08-17 17:06:00,74.9,65.2,30.01,South,188,2.0,2.0,72,0.00,,,0.00,257,WeatherCatV1.15B25,2013-08-17 22:06:00,
2013-08-17 17:07:00,74.9,65.2,30.01,SE,140,0.0,6.0,72,0.00,,,0.00,262,WeatherCatV1.15B25,2013-08-17 22:07:00,
2013-08-17 17:08:00,75.0,65.7,30.01,SE,145,5.0,6.0,73,0.00,,,0.00,267,WeatherCatV1.15B25,2013-08-17 22:08:00,
2013-08-17 17:09:00,74.9,64.8,30.01,ESE,110,3.0,11.0,71,0.00,,,0.00,272,WeatherCatV1.15B25,2013-08-17 22:09:00,
2013-08-17 17:10:00,74.9,64.8,30.01,ESE,113,9.0,11.0,71,0.00,,,0.00,279,WeatherCatV1.15B25,2013-08-17 22:10:00,
2013-08-17 17:11:00,74.8,65.2,30.01,SE,130,6.0,10.0,72,0.00,,,0.00,287,WeatherCatV1.15B25,2013-08-17 22:11:00,
2013-08-17 17:12:00,74.7,64.7,30.01,SE,132,4.0,11.0,71,0.00,,,0.00,281,WeatherCatV1.15B25,2013-08-17 22:12:00,
2013-08-17 17:13:00,74.7,64.7,30.01,SE,130,1.0,11.0,71,0.00,,,0.00,276,WeatherCatV1.15B25,2013-08-17 22:13:00,
2013-08-17 17:14:00,74.7,65.1,30.01,ESE,107,4.0,6.0,72,0.00,,,0.00,265,WeatherCatV1.15B25,2013-08-17 22:14:00,
2013-08-17 17:15:00,74.7,65.1,30.01,ESE,107,1.0,6.0,72,0.00,,,0.00,265,WeatherCatV1.15B25,2013-08-17 22:15:00,
2013-08-17 17:16:00,74.8,65.2,30.01,ESE,108,1.0,2.0,72,0.00,,,0.00,260,WeatherCatV1.15B25,2013-08-17 22:16:00,
2013-08-17 17:17:00,74.8,65.2,30.01,ESE,122,2.0,6.0,72,0.00,,,0.00,258,WeatherCatV1.15B25,2013-08-17 22:17:00,
2013-08-17 17:18:00,74.8,65.2,30.01,SE,136,2.0,7.0,72,0.00,,,0.00,260,WeatherCatV1.15B25,2013-08-17 22:18:00,
2013-08-17 17:19:00,74.9,65.2,30.01,SE,133,3.0,7.0,72,0.00,,,0.00,265,WeatherCatV1.15B25,2013-08-17 22:19:00,
2013-08-17 17:20:00,74.9,65.2,30.01,ESE,123,9.0,9.0,72,0.00,,,0.00,269,WeatherCatV1.15B25,2013-08-17 22:20:00,
2013-08-17 17:21:00,74.9,65.2,30.01,SSW,203,6.0,13.0,72,0.00,,,0.00,272,WeatherCatV1.15B25,2013-08-17 22:21:00,
2013-08-17 17:22:00,74.8,64.8,30.01,SE,141,7.0,13.0,71,0.00,,,0.00,272,WeatherCatV1.15B25,2013-08-17 22:22:00,
2013-08-17 17:24:00,74.8,64.8,30.01,SE,125,5.0,12.0,71,0.00,,,0.00,271,WeatherCatV1.15B25,2013-08-17 22:24:00,
2013-08-17 17:25:00,74.7,64.2,30.00,SSE,163,3.0,11.0,70,0.00,,,0.00,269,WeatherCatV1.15B25,2013-08-17 22:25:00,
2013-08-17 17:26:00,74.8,64.8,30.01,SSE,150,7.0,7.0,71,0.00,,,0.00,278,WeatherCatV1.15B25,2013-08-17 22:26:00,
2013-08-17 17:28:00,74.8,64.8,30.00,SSE,154,7.0,12.0,71,0.00,,,0.00,367,WeatherCatV1.15B25,2013-08-17 22:28:00,
2013-08-17 17:29:00,74.8,64.8,30.01,SE,135,0.0,10.0,71,0.00,,,0.00,308,WeatherCatV1.15B25,2013-08-17 22:29:00,
2013-08-17 17:30:00,74.9,65.2,30.01,SE,136,3.0,4.0,72,0.00,,,0.00,334,WeatherCatV1.15B25,2013-08-17 22:30:00,
2013-08-17 17:32:00,75.0,64.9,30.00,SSE,155,3.0,10.0,71,0.00,,,0.00,316,WeatherCatV1.15B25,2013-08-17 22:32:00,
2013-08-17 17:33:00,75.0,64.9,30.01,SSE,155,2.0,4.0,71,0.00,,,0.00,313,WeatherCatV1.15B25,2013-08-17 22:33:00,
2013-08-17 17:34:00,75.0,64.9,30.00,ENE,67,6.0,13.0,71,0.00,,,0.00,396,WeatherCatV1.15B25,2013-08-17 22:34:00,
2013-08-17 17:35:00,75.1,65.0,30.01,SE,125,10.0,13.0,71,0.00,,,0.00,396,WeatherCatV1.15B25,2013-08-17 22:35:00,
2013-08-17 17:36:00,75.0,64.9,30.01,SE,137,3.0,13.0,71,0.00,,,0.00,258,WeatherCatV1.15B25,2013-08-17 22:36:00,
2013-08-17 17:37:00,75.0,64.9,30.00,SE,137,0.0,4.0,71,0.00,,,0.00,237,WeatherCatV1.15B25,2013-08-17 22:37:00,
2013-08-17 17:38:00,75.0,65.3,30.01,SE,136,2.0,2.0,72,0.00,,,0.00,209,WeatherCatV1.15B25,2013-08-17 22:38:00,
2013-08-17 17:39:00,75.0,65.3,30.01,SE,138,5.0,9.0,72,0.00,,,0.00,199,WeatherCatV1.15B25,2013-08-17 22:39:00,
2013-08-17 17:40:00,75.0,65.3,30.01,SSE,168,5.0,13.0,72,0.00,,,0.00,190,WeatherCatV1.15B25,2013-08-17 22:40:00,
2013-08-17 17:41:00,74.9,64.4,30.01,SE,136,7.0,13.0,70,0.00,,,0.00,183,WeatherCatV1.15B25,2013-08-17 22:41:00,
2013-08-17 17:42:00,74.9,64.4,30.01,SE,136,9.0,10.0,70,0.00,,,0.00,178,WeatherCatV1.15B25,2013-08-17 22:42:00,
2013-08-17 17:43:00,74.7,64.7,30.01,SE,141,2.0,9.0,71,0.00,,,0.00,174,WeatherCatV1.15B25,2013-08-17 22:43:00,
2013-08-17 17:45:00,74.7,64.7,30.01,SSE,150,3.0,13.0,71,0.00,,,0.00,167,WeatherCatV1.15B25,2013-08-17 22:45:00,
2013-08-17 17:46:00,74.6,64.6,30.01,SSE,159,5.0,7.0,71,0.00,,,0.00,169,WeatherCatV1.15B25,2013-08-17 22:46:00,
2013-08-17 17:47:00,74.5,64.9,30.01,ESE,105,4.0,7.0,72,0.00,,,0.00,176,WeatherCatV1.15B25,2013-08-17 22:47:00,
2013-08-17 17:48:00,74.5,64.9,30.00,ESE,119,5.0,6.0,72,0.00,,,0.00,185,WeatherCatV1.15B25,2013-08-17 22:48:00,
2013-08-17 17:50:00,74.4,64.4,30.00,SSE,160,5.0,12.0,71,0.00,,,0.00,206,WeatherCatV1.15B25,2013-08-17 22:50:00,
2013-08-17 17:51:00,74.4,64.8,30.01,SSE,157,3.0,5.0,72,0.00,,,0.00,227,WeatherCatV1.15B25,2013-08-17 22:51:00,
2013-08-17 17:52:00,74.4,64.8,30.01,East,84,3.0,7.0,72,0.00,,,0.00,232,WeatherCatV1.15B25,2013-08-17 22:52:00,
2013-08-17 17:53:00,74.4,64.8,30.00,ESE,120,1.0,7.0,72,0.00,,,0.00,232,WeatherCatV1.15B25,2013-08-17 22:53:00,
2013-08-17 17:55:00,74.4,64.8,30.00,SE,133,0.0,5.0,72,0.00,,,0.00,227,WeatherCatV1.15B25,2013-08-17 22:55:00,
2013-08-17 17:56:00,74.4,64.8,30.00,South,179,6.0,11.0,72,0.00,,,0.00,209,WeatherCatV1.15B25,2013-08-17 22:56:00,
2013-08-17 17:57:00,74.4,64.8,30.01,SE,142,6.0,11.0,72,0.00,,,0.00,199,WeatherCatV1.15B25,2013-08-17 22:57:00,
2013-08-17 17:59:00,74.4,64.8,30.01,ESE,115,11.0,12.0,72,0.00,,,0.00,186,WeatherCatV1.15B25,2013-08-17 22:59:00,
2013-08-17 18:00:00,74.4,64.8,30.01,SW,218,1.0,12.0,72,0.00,,,0.00,183,WeatherCatV1.15B25,2013-08-17 23:00:00,
2013-08-17 18:01:00,74.4,64.8,30.01,SE,131,3.0,6.0,72,0.00,,,0.00,181,WeatherCatV1.15B25,2013-08-17 23:01:00,
2013-08-17 18:02:00,74.4,64.8,30.01,SE,132,3.0,3.0,72,0.00,,,0.00,185,WeatherCatV1.15B25,2013-08-17 23:02:00,
2013-08-17 18:04:00,74.4,64.8,30.01,SSE,150,5.0,10.0,72,0.00,,,0.00,186,WeatherCatV1.15B25,2013-08-17 23:04:00,
2013-08-17 18:05:00,74.3,64.7,30.01,SSW,202,3.0,9.0,72,0.00,,,0.00,186,WeatherCatV1.15B25,2013-08-17 23:05:00,
2013-08-17 18:06:00,74.3,64.7,30.00,ENE,65,3.0,9.0,72,0.00,,,0.00,186,WeatherCatV1.15B25,2013-08-17 23:06:00,
2013-08-17 18:07:00,74.3,64.7,30.00,East,96,2.0,5.0,72,0.00,,,0.00,190,WeatherCatV1.15B25,2013-08-17 23:07:00,
2013-08-17 18:08:00,74.3,64.7,30.01,SSE,156,4.0,13.0,72,0.00,,,0.00,192,WeatherCatV1.15B25,2013-08-17 23:08:00,
2013-08-17 18:09:00,74.3,64.3,30.01,SE,133,14.0,14.0,71,0.00,,,0.00,213,WeatherCatV1.15B25,2013-08-17 23:09:00,
2013-08-17 18:10:00,74.3,64.3,30.00,ESE,111,4.0,14.0,71,0.00,,,0.00,197,WeatherCatV1.15B25,2013-08-17 23:10:00,
2013-08-17 18:11:00,74.2,64.2,30.00,ESE,113,1.0,14.0,71,0.00,,,0.00,195,WeatherCatV1.15B25,2013-08-17 23:11:00,
2013-08-17 18:12:00,74.3,64.7,30.00,SE,132,10.0,10.0,72,0.00,,,0.00,192,WeatherCatV1.15B25,2013-08-17 23:12:00,
2013-08-17 18:13:00,74.3,64.7,30.00,ESE,113,3.0,10.0,72,0.00,,,0.00,190,WeatherCatV1.15B25,2013-08-17 23:13:00,
2013-08-17 18:14:00,74.3,64.7,30.00,SE,134,4.0,9.0,72,0.00,,,0.00,192,WeatherCatV1.15B25,2013-08-17 23:14:00,
2013-08-17 18:15:00,74.3,64.7,30.00,SSE,147,0.0,6.0,72,0.00,,,0.00,176,WeatherCatV1.15B25,2013-08-17 23:15:00,
2013-08-17 18:16:00,74.3,64.3,30.00,East,99,9.0,11.0,71,0.00,,,0.00,176,WeatherCatV1.15B25,2013-08-17 23:16:00,
2013-08-17 18:17:00,74.3,64.3,30.00,SE,137,2.0,11.0,71,0.00,,,0.00,169,WeatherCatV1.15B25,2013-08-17 23:17:00,
2013-08-17 18:18:00,74.3,64.7,30.00,SE,136,0.0,4.0,72,0.00,,,0.00,156,WeatherCatV1.15B25,2013-08-17 23:18:00,
2013-08-17 18:19:00,74.3,64.7,30.00,South,183,5.0,8.0,72,0.00,,,0.00,171,WeatherCatV1.15B25,2013-08-17 23:19:00,
2013-08-17 18:20:00,74.2,64.6,30.00,ESE,114,6.0,10.0,72,0.00,,,0.00,151,WeatherCatV1.15B25,2013-08-17 23:20:00,
2013-08-17 18:21:00,74.2,64.6,30.00,ESE,114,1.0,10.0,72,0.00,,,0.00,146,WeatherCatV1.15B25,2013-08-17 23:21:00,
2013-08-17 18:22:00,74.1,64.5,30.00,SE,134,1.0,10.0,72,0.00,,,0.00,144,WeatherCatV1.15B25,2013-08-17 23:22:00,
2013-08-17 18:23:00,74.1,64.5,30.00,SE,141,6.0,10.0,72,0.00,,,0.00,144,WeatherCatV1.15B25,2013-08-17 23:23:00,
2013-08-17 18:25:00,74.1,64.5,30.00,SE,133,7.0,7.0,72,0.00,,,0.00,139,WeatherCatV1.15B25,2013-08-17 23:25:00,
2013-08-17 18:26:00,74.1,64.5,30.00,SE,136,1.0,7.0,72,0.00,,,0.00,134,WeatherCatV1.15B25,2013-08-17 23:26:00,
2013-08-17 18:27:00,74.1,64.5,30.00,SE,143,2.0,5.0,72,0.00,,,0.00,120,WeatherCatV1.15B25,2013-08-17 23:27:00,
2013-08-17 18:28:00,74.0,64.4,30.00,ESE,106,10.0,11.0,72,0.00,,,0.00,113,WeatherCatV1.15B25,2013-08-17 23:28:00,
2013-08-17 18:30:00,73.9,64.3,30.00,SE,138,0.0,11.0,72,0.00,,,0.00,113,WeatherCatV1.15B25,2013-08-17 23:30:00,
2013-08-17 18:31:00,73.9,64.3,30.00,ESE,117,2.0,6.0,72,0.00,,,0.00,125,WeatherCatV1.15B25,2013-08-17 23:31:00,
2013-08-17 18:33:00,73.9,64.3,30.00,ESE,114,3.0,8.0,72,0.00,,,0.00,134,WeatherCatV1.15B25,2013-08-17 23:33:00,
2013-08-17 18:35:00,73.9,64.3,30.00,ESE,106,3.0,4.0,72,0.00,,,0.00,135,WeatherCatV1.15B25,2013-08-17 23:35:00,
2013-08-17 18:36:00,73.9,64.3,30.00,ESE,103,4.0,5.0,72,0.00,,,0.00,137,WeatherCatV1.15B25,2013-08-17 23:36:00,
2013-08-17 18:38:00,73.9,64.7,30.00,ESE,105,2.0,3.0,73,0.00,,,0.00,149,WeatherCatV1.15B25,2013-08-17 23:38:00,
2013-08-17 18:39:00,73.9,64.3,30.00,SE,129,13.0,13.0,72,0.00,,,0.00,158,WeatherCatV1.15B25,2013-08-17 23:39:00,
2013-08-17 18:40:00,73.9,64.3,30.00,SE,138,3.0,13.0,72,0.00,,,0.00,162,WeatherCatV1.15B25,2013-08-17 23:40:00,
2013-08-17 18:41:00,73.9,64.3,30.00,SE,138,0.0,13.0,72,0.00,,,0.00,160,WeatherCatV1.15B25,2013-08-17 23:41:00,
2013-08-17 18:42:00,73.9,64.3,30.00,SE,137,4.0,7.0,72,0.00,,,0.00,153,WeatherCatV1.15B25,2013-08-17 23:42:00,
2013-08-17 18:43:00,73.8,64.2,30.00,SE,136,1.0,7.0,72,0.00,,,0.00,142,WeatherCatV1.15B25,2013-08-17 23:43:00,
2013-08-17 18:44:00,73.8,64.2,30.00,SSE,149,5.0,6.0,72,0.00,,,0.00,134,WeatherCatV1.15B25,2013-08-17 23:44:00,
2013-08-17 18:46:00,73.8,64.2,30.00,SE,138,1.0,6.0,72,0.00,,,0.00,158,WeatherCatV1.15B25,2013-08-17 23:46:00,
2013-08-17 18:47:00,73.8,64.2,30.00,SE,131,5.0,5.0,72,0.00,,,0.00,163,WeatherCatV1.15B25,2013-08-17 23:47:00,
2013-08-17 18:49:00,73.8,64.2,30.00,SE,142,7.0,14.0,72,0.00,,,0.00,123,WeatherCatV1.15B25,2013-08-17 23:49:00,
2013-08-17 18:51:00,73.7,64.1,30.00,ESE,118,0.0,12.0,72,0.00,,,0.00,127,WeatherCatV1.15B25,2013-08-17 23:51:00,
2013-08-17 18:52:00,73.7,64.1,30.00,SE,132,3.0,12.0,72,0.00,,,0.00,155,WeatherCatV1.15B25,2013-08-17 23:52:00,
2013-08-17 18:54:00,73.7,64.1,30.00,SE,146,4.0,9.0,72,0.00,,,0.00,130,WeatherCatV1.15B25,2013-08-17 23:54:00,
2013-08-17 18:56:00,73.7,64.1,30.00,SSE,159,4.0,7.0,72,0.00,,,0.00,109,WeatherCatV1.15B25,2013-08-17 23:56:00,
2013-08-17 18:57:00,73.6,64.0,30.00,SSE,164,0.0,7.0,72,0.00,,,0.00,102,WeatherCatV1.15B25,2013-08-17 23:57:00,
2013-08-17 18:59:00,73.6,64.4,30.00,SE,137,9.0,9.0,73,0.00,,,0.00,90,WeatherCatV1.15B25,2013-08-17 23:59:00,
2013-08-17 19:01:00,73.5,64.3,30.00,SE,134,2.0,6.0,73,0.00,,,0.00,83,WeatherCatV1.15B25,2013-08-18 00:01:00,
2013-08-17 19:02:00,73.5,64.3,30.00,ESE,121,4.0,9.0,73,0.00,,,0.00,76,WeatherCatV1.15B25,2013-08-18 00:02:00,
2013-08-17 19:04:00,73.4,64.2,30.00,ESE,121,0.0,4.0,73,0.00,,,0.00,74,WeatherCatV1.15B25,2013-08-18 00:04:00,
2013-08-17 19:06:00,73.3,64.1,30.00,ESE,108,2.0,10.0,73,0.00,,,0.00,72,WeatherCatV1.15B25,2013-08-18 00:06:00,
2013-08-17 19:07:00,73.2,64.0,30.00,ESE,117,1.0,6.0,73,0.00,,,0.00,72,WeatherCatV1.15B25,2013-08-18 00:07:00,
2013-08-17 19:09:00,73.1,63.9,30.00,ESE,123,5.0,9.0,73,0.00,,,0.00,72,WeatherCatV1.15B25,2013-08-18 00:09:00,
2013-08-17 19:10:00,73.1,63.9,30.00,ESE,123,3.0,9.0,73,0.00,,,0.00,81,WeatherCatV1.15B25,2013-08-18 00:10:00,
2013-08-17 19:11:00,73.1,63.9,30.00,ESE,123,2.0,4.0,73,0.00,,,0.00,97,WeatherCatV1.15B25,2013-08-18 00:11:00,
2013-08-17 19:13:00,73.0,63.8,30.00,ESE,115,2.0,9.0,73,0.00,,,0.00,83,WeatherCatV1.15B25,2013-08-18 00:13:00,
2013-08-17 19:15:00,72.9,63.7,30.00,ESE,112,3.0,6.0,73,0.00,,,0.00,76,WeatherCatV1.15B25,2013-08-18 00:15:00,
2013-08-17 19:16:00,72.9,63.7,30.00,ESE,112,2.0,3.0,73,0.00,,,0.00,76,WeatherCatV1.15B25,2013-08-18 00:16:00,
2013-08-17 19:17:00,72.8,63.6,30.00,ESE,113,1.0,6.0,73,0.00,,,0.00,74,WeatherCatV1.15B25,2013-08-18 00:17:00,
2013-08-17 19:18:00,72.8,64.0,30.00,ESE,111,2.0,6.0,74,0.00,,,0.00,72,WeatherCatV1.15B25,2013-08-18 00:18:00,
2013-08-17 19:20:00,72.7,63.9,30.00,East,94,0.0,0.0,74,0.00,,,0.00,70,WeatherCatV1.15B25,2013-08-18 00:20:00,
2013-08-17 19:21:00,72.7,63.9,30.00,SE,144,2.0,10.0,74,0.00,,,0.00,67,WeatherCatV1.15B25,2013-08-18 00:21:00,
2013-08-17 19:22:00,72.6,63.8,30.00,SE,138,3.0,10.0,74,0.00,,,0.00,67,WeatherCatV1.15B25,2013-08-18 00:22:00,
2013-08-17 19:23:00,72.6,63.8,30.00,SE,140,2.0,6.0,74,0.00,,,0.00,72,WeatherCatV1.15B25,2013-08-18 00:23:00,
2013-08-17 19:25:00,72.6,63.8,30.00,SE,140,0.0,5.0,74,0.00,,,0.00,69,WeatherCatV1.15B25,2013-08-18 00:25:00,
2013-08-17 19:26:00,72.6,63.8,30.00,SE,138,6.0,10.0,74,0.00,,,0.00,67,WeatherCatV1.15B25,2013-08-18 00:26:00,
2013-08-17 19:27:00,72.5,63.7,30.00,SE,138,0.0,10.0,74,0.00,,,0.00,63,WeatherCatV1.15B25,2013-08-18 00:27:00,
2013-08-17 19:28:00,72.5,63.7,30.00,SE,138,0.0,4.0,74,0.00,,,0.00,60,WeatherCatV1.15B25,2013-08-18 00:28:00,
2013-08-17 19:30:00,72.4,63.6,30.00,SE,130,4.0,5.0,74,0.00,,,0.00,58,WeatherCatV1.15B25,2013-08-18 00:30:00,
2013-08-17 19:31:00,72.4,63.6,30.00,ESE,120,4.0,4.0,74,0.00,,,0.00,56,WeatherCatV1.15B25,2013-08-18 00:31:00,
2013-08-17 19:33:00,72.4,64.0,30.00,ESE,119,5.0,5.0,75,0.00,,,0.00,56,WeatherCatV1.15B25,2013-08-18 00:33:00,
2013-08-17 19:35:00,72.3,63.9,30.00,ESE,120,0.0,4.0,75,0.00,,,0.00,53,WeatherCatV1.15B25,2013-08-18 00:35:00,
2013-08-17 19:36:00,72.2,63.8,30.00,ESE,120,0.0,4.0,75,0.00,,,0.00,53,WeatherCatV1.15B25,2013-08-18 00:36:00,
2013-08-17 19:37:00,72.2,63.8,30.00,ESE,118,3.0,6.0,75,0.00,,,0.00,51,WeatherCatV1.15B25,2013-08-18 00:37:00,
2013-08-17 19:38:00,72.2,63.8,30.00,ESE,119,0.0,6.0,75,0.00,,,0.00,47,WeatherCatV1.15B25,2013-08-18 00:38:00,
2013-08-17 19:40:00,72.0,64.0,30.00,ESE,119,0.0,0.0,76,0.00,,,0.00,46,WeatherCatV1.15B25,2013-08-18 00:40:00,
2013-08-17 19:41:00,72.0,64.0,30.00,ESE,119,0.0,2.0,76,0.00,,,0.00,46,WeatherCatV1.15B25,2013-08-18 00:41:00,
2013-08-17 19:42:00,72.0,63.6,30.00,ESE,119,0.0,2.0,75,0.00,,,0.00,46,WeatherCatV1.15B25,2013-08-18 00:42:00,
2013-08-17 19:43:00,71.9,63.9,30.00,ESE,119,0.0,2.0,76,0.00,,,0.00,44,WeatherCatV1.15B25,2013-08-18 00:43:00,
2013-08-17 19:44:00,71.9,63.9,30.00,ESE,119,4.0,7.0,76,0.00,,,0.00,44,WeatherCatV1.15B25,2013-08-18 00:44:00,
2013-08-17 19:45:00,71.8,63.8,30.00,SE,136,2.0,7.0,76,0.00,,,0.00,42,WeatherCatV1.15B25,2013-08-18 00:45:00,
2013-08-17 19:46:00,71.8,63.4,30.00,SE,136,0.0,6.0,75,0.00,,,0.00,40,WeatherCatV1.15B25,2013-08-18 00:46:00,
2013-08-17 19:47:00,71.8,63.4,30.00,SE,136,1.0,1.0,75,0.00,,,0.00,40,WeatherCatV1.15B25,2013-08-18 00:47:00,
2013-08-17 19:48:00,71.8,63.4,30.00,SE,130,1.0,5.0,75,0.00,,,0.00,39,WeatherCatV1.15B25,2013-08-18 00:48:00,
2013-08-17 19:49:00,71.7,63.3,30.00,SE,128,3.0,5.0,75,0.00,,,0.00,37,WeatherCatV1.15B25,2013-08-18 00:49:00,
2013-08-17 19:50:00,71.7,63.3,30.00,SE,136,3.0,6.0,75,0.00,,,0.00,35,WeatherCatV1.15B25,2013-08-18 00:50:00,
2013-08-17 19:52:00,71.7,63.3,30.00,SE,128,0.0,6.0,75,0.00,,,0.00,35,WeatherCatV1.15B25,2013-08-18 00:52:00,
2013-08-17 19:53:00,71.6,63.2,30.00,SE,129,1.0,5.0,75,0.00,,,0.00,33,WeatherCatV1.15B25,2013-08-18 00:53:00,
2013-08-17 19:54:00,71.6,63.2,30.00,ESE,116,2.0,5.0,75,0.00,,,0.00,33,WeatherCatV1.15B25,2013-08-18 00:54:00,
2013-08-17 19:56:00,71.6,63.2,30.00,SE,132,0.0,10.0,75,0.00,,,0.00,33,WeatherCatV1.15B25,2013-08-18 00:56:00,
2013-08-17 19:57:00,71.5,63.1,30.00,SE,138,1.0,10.0,75,0.00,,,0.00,32,WeatherCatV1.15B25,2013-08-18 00:57:00,
2013-08-17 19:58:00,71.5,63.1,30.00,SSE,153,4.0,10.0,75,0.00,,,0.00,32,WeatherCatV1.15B25,2013-08-18 00:58:00,
2013-08-17 20:00:00,71.4,63.0,30.00,SE,140,1.0,10.0,75,0.00,,,0.00,30,WeatherCatV1.15B25,2013-08-18 01:00:00,
2013-08-17 20:01:00,71.4,63.0,30.00,SE,136,0.0,5.0,75,0.00,,,0.00,28,WeatherCatV1.15B25,2013-08-18 01:01:00,
2013-08-17 20:02:00,71.3,63.0,30.00,SE,136,1.0,3.0,75,0.00,,,0.00,26,WeatherCatV1.15B25,2013-08-18 01:02:00,
2013-08-17 20:03:00,71.3,63.0,30.00,SE,139,5.0,5.0,75,0.00,,,0.00,26,WeatherCatV1.15B25,2013-08-18 01:03:00,
2013-08-17 20:05:00,71.2,62.9,30.00,SE,138,1.0,5.0,75,0.00,,,0.00,23,WeatherCatV1.15B25,2013-08-18 01:05:00,
2013-08-17 20:06:00,71.2,63.2,30.00,SE,139,0.0,2.0,76,0.00,,,0.00,21,WeatherCatV1.15B25,2013-08-18 01:06:00,
2013-08-17 20:07:00,71.2,63.2,30.00,SE,138,5.0,5.0,76,0.00,,,0.00,21,WeatherCatV1.15B25,2013-08-18 01:07:00,
2013-08-17 20:08:00,71.1,63.1,30.00,SE,144,3.0,6.0,76,0.00,,,0.00,19,WeatherCatV1.15B25,2013-08-18 01:08:00,
2013-08-17 20:10:00,71.0,63.0,30.00,SE,144,0.0,4.0,76,0.00,,,0.00,18,WeatherCatV1.15B25,2013-08-18 01:10:00,
2013-08-17 20:11:00,71.0,63.0,30.00,SE,145,2.0,4.0,76,0.00,,,0.00,18,WeatherCatV1.15B25,2013-08-18 01:11:00,
2013-08-17 20:12:00,71.0,63.0,30.00,SE,145,0.0,4.0,76,0.00,,,0.00,16,WeatherCatV1.15B25,2013-08-18 01:12:00,
2013-08-17 20:13:00,70.9,62.9,30.00,SE,144,1.0,3.0,76,0.00,,,0.00,16,WeatherCatV1.15B25,2013-08-18 01:13:00,
2013-08-17 20:15:00,70.8,63.2,30.00,SE,146,0.0,5.0,77,0.00,,,0.00,14,WeatherCatV1.15B25,2013-08-18 01:15:00,
2013-08-17 20:16:00,70.7,63.1,30.00,SE,146,0.0,5.0,77,0.00,,,0.00,12,WeatherCatV1.15B25,2013-08-18 01:16:00,
2013-08-17 20:17:00,70.7,63.1,30.00,SE,145,0.0,2.0,77,0.00,,,0.00,12,WeatherCatV1.15B25,2013-08-18 01:17:00,
2013-08-17 20:18:00,70.6,63.0,30.00,SE,146,2.0,3.0,77,0.00,,,0.00,12,WeatherCatV1.15B25,2013-08-18 01:18:00,
2013-08-17 20:19:00,70.5,62.9,30.00,SE,146,0.0,4.0,77,0.00,,,0.00,11,WeatherCatV1.15B25,2013-08-18 01:19:00,
2013-08-17 20:20:00,70.4,62.8,30.00,SE,146,0.0,6.0,77,0.00,,,0.00,11,WeatherCatV1.15B25,2013-08-18 01:20:00,
2013-08-17 20:21:00,70.3,63.1,30.00,SE,146,0.0,6.0,78,0.00,,,0.00,9,WeatherCatV1.15B25,2013-08-18 01:21:00,
2013-08-17 20:22:00,70.3,63.1,30.00,SE,146,0.0,2.0,78,0.00,,,0.00,9,WeatherCatV1.15B25,2013-08-18 01:22:00,
2013-08-17 20:23:00,70.2,63.0,30.00,SE,146,0.0,2.0,78,0.00,,,0.00,9,WeatherCatV1.15B25,2013-08-18 01:23:00,
2013-08-17 20:24:00,70.1,62.9,30.00,SE,146,0.0,2.0,78,0.00,,,0.00,7,WeatherCatV1.15B25,2013-08-18 01:24:00,
2013-08-17 20:25:00,70.1,62.9,30.00,SE,146,0.0,2.0,78,0.00,,,0.00,7,WeatherCatV1.15B25,2013-08-18 01:25:00,
2013-08-17 20:26:00,70.0,62.8,30.00,SE,146,2.0,4.0,78,0.00,,,0.00,5,WeatherCatV1.15B25,2013-08-18 01:26:00,
2013-08-17 20:27:00,69.9,63.1,30.00,SE,146,0.0,4.0,79,0.00,,,0.00,5,WeatherCatV1.15B25,2013-08-18 01:27:00,
2013-08-17 20:28:00,69.9,63.1,30.00,SE,146,1.0,2.0,79,0.00,,,0.00,5,WeatherCatV1.15B25,2013-08-18 01:28:00,
2013-08-17 20:29:00,69.9,63.1,30.00,SE,145,2.0,3.0,79,0.00,,,0.00,5,WeatherCatV1.15B25,2013-08-18 01:29:00,
2013-08-17 20:30:00,69.8,63.0,30.00,SE,145,0.0,3.0,79,0.00,,,0.00,0,WeatherCatV1.15B25,2013-08-18 01:30:00,
2013-08-17 20:32:00,69.7,62.9,30.00,SE,141,0.0,5.0,79,0.00,,,0.00,0,WeatherCatV1.15B25,2013-08-18 01:32:00,
2013-08-17 20:33:00,69.7,62.9,30.00,SE,141,0.0,0.0,79,0.00,,,0.00,0,WeatherCatV1.15B25,2013-08-18 01:33:00,
2013-08-17 20:34:00,69.6,63.1,30.00,SE,141,1.0,2.0,80,0.00,,,0.00,0,WeatherCatV1.15B25,2013-08-18 01:34:00,
2013-08-17 20:35:00,69.5,63.0,30.00,SE,140,0.0,3.0,80,0.00,,,0.00,0,WeatherCatV1.15B25,2013-08-18 01:35:00,
2013-08-17 20:37:00,69.5,63.0,30.00,SE,140,1.0,1.0,80,0.00,,,0.00,0,WeatherCatV1.15B25,2013-08-18 01:37:00,
2013-08-17 20:39:00,69.4,63.0,30.00,SE,140,0.0,3.0,80,0.00,,,0.00,0,WeatherCatV1.15B25,2013-08-18 01:39:00,
2013-08-17 20:41:00,69.2,62.8,30.00,SE,140,3.0,5.0,80,0.00,,,0.00,0,WeatherCatV1.15B25,2013-08-18 01:41:00,
2013-08-17 20:42:00,69.2,62.8,30.00,SE,142,6.0,6.0,80,0.00,,,0.00,0,WeatherCatV1.15B25,2013-08-18 01:42:00,
2013-08-17 20:44:00,69.1,62.7,30.00,SE,144,3.0,6.0,80,0.00,,,0.00,0,WeatherCatV1.15B25,2013-08-18 01:44:00,
2013-08-17 20:46:00,69.0,62.6,30.00,SE,144,0.0,4.0,80,0.00,,,0.00,0,WeatherCatV1.15B25,2013-08-18 01:46:00,
2013-08-17 20:47:00,68.9,62.8,30.00,SE,143,0.0,3.0,81,0.00,,,0.00,0,WeatherCatV1.15B25,2013-08-18 01:47:00,
2013-08-17 20:48:00,68.9,62.8,30.00,SE,142,2.0,3.0,81,0.00,,,0.00,0,WeatherCatV1.15B25,2013-08-18 01:48:00,
2013-08-17 20:49:00,68.8,62.7,30.00,SE,140,0.0,5.0,81,0.00,,,0.00,0,WeatherCatV1.15B25,2013-08-18 01:49:00,
2013-08-17 20:51:00,68.8,62.7,30.00,SE,137,3.0,4.0,81,0.00,,,0.00,0,WeatherCatV1.15B25,2013-08-18 01:51:00,
2013-08-17 20:53:00,68.7,62.6,30.00,SE,136,0.0,7.0,81,0.00,,,0.00,0,WeatherCatV1.15B25,2013-08-18 01:53:00,
2013-08-17 20:54:00,68.7,62.6,30.00,SE,131,4.0,7.0,81,0.00,,,0.00,0,WeatherCatV1.15B25,2013-08-18 01:54:00,
2013-08-17 20:56:00,68.7,62.6,30.00,SE,132,0.0,4.0,81,0.00,,,0.00,0,WeatherCatV1.15B25,2013-08-18 01:56:00,
2013-08-17 20:58:00,68.6,62.5,30.00,SE,132,2.0,3.0,81,0.00,,,0.00,0,WeatherCatV1.15B25,2013-08-18 01:58:00,
2013-08-17 20:59:00,68.5,62.4,30.00,SE,125,5.0,5.0,81,0.00,,,0.00,0,WeatherCatV1.15B25,2013-08-18 01:59:00,
2013-08-17 21:00:00,68.5,62.4,30.00,SE,126,3.0,5.0,81,0.00,,,0.00,0,WeatherCatV1.15B25,2013-08-18 02:00:00,
2013-08-17 21:01:00,68.5,62.4,30.00,SE,126,0.0,9.0,81,0.00,,,0.00,0,WeatherCatV1.15B25,2013-08-18 02:01:00,
2013-08-17 21:03:00,68.4,62.3,30.00,SE,126,1.0,4.0,81,0.00,,,0.00,0,WeatherCatV1.15B25,2013-08-18 02:03:00,
2013-08-17 21:05:00,68.3,62.2,30.00,SE,128,3.0,5.0,81,0.00,,,0.00,0,WeatherCatV1.15B25,2013-08-18 02:05:00,
2013-08-17 21:06:00,68.2,62.1,30.00,SE,128,0.0,7.0,81,0.00,,,0.00,0,WeatherCatV1.15B25,2013-08-18 02:06:00,
2013-08-17 21:08:00,68.2,62.5,30.00,SE,128,0.0,2.0,82,0.00,,,0.00,0,WeatherCatV1.15B25,2013-08-18 02:08:00,
2013-08-17 21:10:00,68.1,62.4,30.00,SE,128,0.0,4.0,82,0.00,,,0.00,0,WeatherCatV1.15B25,2013-08-18 02:10:00,
2013-08-17 21:11:00,68.0,62.3,30.00,SE,129,0.0,2.0,82,0.00,,,0.00,0,WeatherCatV1.15B25,2013-08-18 02:11:00,
2013-08-17 21:13:00,68.0,62.3,30.00,SE,129,0.0,0.0,82,0.00,,,0.00,0,WeatherCatV1.15B25,2013-08-18 02:13:00,
2013-08-17 21:15:00,67.9,62.2,30.01,SE,131,1.0,6.0,82,0.00,,,0.00,0,WeatherCatV1.15B25,2013-08-18 02:15:00,
2013-08-17 21:17:00,67.9,62.2,30.01,SE,126,2.0,8.0,82,0.00,,,0.00,0,WeatherCatV1.15B25,2013-08-18 02:17:00,
2013-08-17 21:18:00,67.9,62.2,30.01,SE,126,2.0,8.0,82,0.00,,,0.00,0,WeatherCatV1.15B25,2013-08-18 02:18:00,
2013-08-17 21:20:00,67.8,62.1,30.01,SE,128,3.0,6.0,82,0.00,,,0.00,0,WeatherCatV1.15B25,2013-08-18 02:20:00,
2013-08-17 21:23:00,67.8,62.1,30.00,SE,127,2.0,4.0,82,0.00,,,0.00,0,WeatherCatV1.15B25,2013-08-18 02:23:00,
2013-08-17 21:25:00,67.7,62.0,30.01,SE,126,2.0,4.0,82,0.00,,,0.00,0,WeatherCatV1.15B25,2013-08-18 02:25:00,
2013-08-17 21:28:00,67.6,61.9,30.01,SE,137,0.0,5.0,82,0.00,,,0.00,0,WeatherCatV1.15B25,2013-08-18 02:28:00,
2013-08-17 21:29:00,67.6,61.6,30.01,SE,137,0.0,5.0,81,0.00,,,0.00,0,WeatherCatV1.15B25,2013-08-18 02:29:00,
2013-08-17 21:30:00,67.5,61.5,30.01,SE,137,1.0,1.0,81,0.00,,,0.00,0,WeatherCatV1.15B25,2013-08-18 02:30:00,
2013-08-17 21:31:00,67.5,61.5,30.01,SE,137,0.0,1.0,81,0.00,,,0.00,0,WeatherCatV1.15B25,2013-08-18 02:31:00,
2013-08-17 21:33:00,67.5,61.8,30.01,SE,137,0.0,5.0,82,0.00,,,0.00,0,WeatherCatV1.15B25,2013-08-18 02:33:00,
2013-08-17 21:34:00,67.4,61.7,30.01,SE,136,3.0,6.0,82,0.00,,,0.00,0,WeatherCatV1.15B25,2013-08-18 02:34:00,
2013-08-17 21:35:00,67.4,61.7,30.01,SE,137,2.0,5.0,82,0.00,,,0.00,0,WeatherCatV1.15B25,2013-08-18 02:35:00,
2013-08-17 21:36:00,67.4,61.4,30.01,SE,136,4.0,9.0,81,0.00,,,0.00,0,WeatherCatV1.15B25,2013-08-18 02:36:00,
2013-08-17 21:38:00,67.4,61.4,30.01,SE,136,0.0,9.0,81,0.00,,,0.00,0,WeatherCatV1.15B25,2013-08-18 02:38:00,
2013-08-17 21:39:00,67.4,61.4,30.01,SE,129,1.0,5.0,81,0.00,,,0.00,0,WeatherCatV1.15B25,2013-08-18 02:39:00,
2013-08-17 21:40:00,67.4,61.4,30.01,SE,135,2.0,6.0,81,0.00,,,0.00,0,WeatherCatV1.15B25,2013-08-18 02:40:00,
2013-08-17 21:41:00,67.3,61.3,30.01,SE,134,4.0,6.0,81,0.00,,,0.00,0,WeatherCatV1.15B25,2013-08-18 02:41:00,
2013-08-17 21:43:00,67.3,61.3,30.01,SE,131,1.0,3.0,81,0.00,,,0.00,0,WeatherCatV1.15B25,2013-08-18 02:43:00,
2013-08-17 21:44:00,67.2,61.2,30.01,SE,131,0.0,3.0,81,0.00,,,0.00,0,WeatherCatV1.15B25,2013-08-18 02:44:00,
2013-08-17 21:45:00,67.2,61.2,30.01,SE,131,1.0,4.0,81,0.00,,,0.00,0,WeatherCatV1.15B25,2013-08-18 02:45:00,
2013-08-17 21:46:00,67.2,61.2,30.01,SE,133,2.0,6.0,81,0.00,,,0.00,0,WeatherCatV1.15B25,2013-08-18 02:46:00,
2013-08-17 21:48:00,67.2,61.2,30.01,SE,140,9.0,10.0,81,0.00,,,0.00,0,WeatherCatV1.15B25,2013-08-18 02:48:00,
2013-08-17 21:49:00,67.2,61.2,30.01,SE,141,5.0,10.0,81,0.00,,,0.00,0,WeatherCatV1.15B25,2013-08-18 02:49:00,
2013-08-17 21:50:00,67.2,61.2,30.01,SE,130,0.0,10.0,81,0.00,,,0.00,0,WeatherCatV1.15B25,2013-08-18 02:50:00,
2013-08-17 21:51:00,67.2,61.2,30.01,ESE,116,4.0,7.0,81,0.00,,,0.00,0,WeatherCatV1.15B25,2013-08-18 02:51:00,
2013-08-17 21:53:00,67.2,61.2,30.01,SE,134,5.0,7.0,81,0.00,,,0.00,0,WeatherCatV1.15B25,2013-08-18 02:53:00,
2013-08-17 21:54:00,67.2,61.2,30.01,SE,128,2.0,7.0,81,0.00,,,0.00,0,WeatherCatV1.15B25,2013-08-18 02:54:00,
2013-08-17 21:55:00,67.1,61.1,30.01,SE,128,5.0,6.0,81,0.00,,,0.00,0,WeatherCatV1.15B25,2013-08-18 02:55:00,
2013-08-17 21:56:00,67.1,61.1,30.01,SE,132,2.0,5.0,81,0.00,,,0.00,0,WeatherCatV1.15B25,2013-08-18 02:56:00,
2013-08-17 21:59:00,67.0,61.0,30.01,SE,128,1.0,3.0,81,0.00,,,0.00,0,WeatherCatV1.15B25,2013-08-18 02:59:00,
2013-08-17 22:00:00,66.9,60.9,30.01,SE,130,3.0,6.0,81,0.00,,,0.00,0,WeatherCatV1.15B25,2013-08-18 03:00:00,
2013-08-17 22:01:00,66.9,60.9,30.01,ESE,123,1.0,7.0,81,0.00,,,0.00,0,WeatherCatV1.15B25,2013-08-18 03:01:00,
2013-08-17 22:02:00,66.9,60.9,30.01,SSE,157,4.0,7.0,81,0.00,,,0.00,0,WeatherCatV1.15B25,2013-08-18 03:02:00,
2013-08-17 22:04:00,66.8,60.8,30.01,ESE,121,7.0,7.0,81,0.00,,,0.00,0,WeatherCatV1.15B25,2013-08-18 03:04:00,
2013-08-17 22:05:00,66.8,60.8,30.01,ESE,119,1.0,9.0,81,0.00,,,0.00,0,WeatherCatV1.15B25,2013-08-18 03:05:00,
2013-08-17 22:06:00,66.7,60.7,30.01,SE,138,7.0,9.0,81,0.00,,,0.00,0,WeatherCatV1.15B25,2013-08-18 03:06:00,
2013-08-17 22:07:00,66.7,60.7,30.02,SE,139,1.0,7.0,81,0.00,,,0.00,0,WeatherCatV1.15B25,2013-08-18 03:07:00,
2013-08-17 22:09:00,66.6,60.6,30.02,SE,139,0.0,4.0,81,0.00,,,0.00,0,WeatherCatV1.15B25,2013-08-18 03:09:00,
2013-08-17 22:10:00,66.6,60.6,30.02,SE,139,0.0,4.0,81,0.00,,,0.00,0,WeatherCatV1.15B25,2013-08-18 03:10:00,
2013-08-17 22:11:00,66.5,60.5,30.02,SE,126,3.0,7.0,81,0.00,,,0.00,0,WeatherCatV1.15B25,2013-08-18 03:11:00,
2013-08-17 22:13:00,66.4,60.7,30.02,ESE,123,3.0,7.0,82,0.00,,,0.00,0,WeatherCatV1.15B25,2013-08-18 03:13:00,
2013-08-17 22:15:00,66.4,60.4,30.02,ESE,123,3.0,6.0,81,0.00,,,0.00,0,WeatherCatV1.15B25,2013-08-18 03:15:00,
2013-08-17 22:16:00,66.4,60.4,30.02,SSE,153,1.0,6.0,81,0.00,,,0.00,0,WeatherCatV1.15B25,2013-08-18 03:16:00,
2013-08-17 22:18:00,66.3,60.3,30.02,SE,135,3.0,3.0,81,0.00,,,0.00,0,WeatherCatV1.15B25,2013-08-18 03:18:00,
2013-08-17 22:20:00,66.3,60.3,30.02,SE,125,3.0,4.0,81,0.00,,,0.00,0,WeatherCatV1.15B25,2013-08-18 03:20:00,
2013-08-17 22:21:00,66.3,60.3,30.02,SE,126,3.0,5.0,81,0.00,,,0.00,0,WeatherCatV1.15B25,2013-08-18 03:21:00,
2013-08-17 22:22:00,66.3,60.3,30.02,SE,127,0.0,5.0,81,0.00,,,0.00,0,WeatherCatV1.15B25,2013-08-18 03:22:00,
2013-08-17 22:23:00,66.3,60.3,30.02,SE,127,3.0,5.0,81,0.00,,,0.00,0,WeatherCatV1.15B25,2013-08-18 03:23:00,
2013-08-17 22:25:00,66.3,60.3,30.02,SE,128,3.0,6.0,81,0.00,,,0.00,0,WeatherCatV1.15B25,2013-08-18 03:25:00,
2013-08-17 22:26:00,66.3,60.3,30.02,SE,130,4.0,6.0,81,0.00,,,0.00,0,WeatherCatV1.15B25,2013-08-18 03:26:00,
2013-08-17 22:27:00,66.3,60.3,30.02,SE,130,2.0,6.0,81,0.00,,,0.00,0,WeatherCatV1.15B25,2013-08-18 03:27:00,
2013-08-17 22:28:00,66.3,60.3,30.02,SE,130,2.0,6.0,81,0.00,,,0.00,0,WeatherCatV1.15B25,2013-08-18 03:28:00,
2013-08-17 22:30:00,66.2,60.2,30.02,SE,131,1.0,5.0,81,0.00,,,0.00,0,WeatherCatV1.15B25,2013-08-18 03:30:00,
2013-08-17 22:32:00,66.2,60.2,30.02,SE,130,2.0,5.0,81,0.00,,,0.00,0,WeatherCatV1.15B25,2013-08-18 03:32:00,
2013-08-17 22:33:00,66.1,60.1,30.02,SE,131,1.0,5.0,81,0.00,,,0.00,0,WeatherCatV1.15B25,2013-08-18 03:33:00,
2013-08-17 22:35:00,66.1,60.1,30.02,ESE,123,6.0,6.0,81,0.00,,,0.00,0,WeatherCatV1.15B25,2013-08-18 03:35:00,
2013-08-17 22:36:00,66.1,60.1,30.02,SE,129,5.0,6.0,81,0.00,,,0.00,0,WeatherCatV1.15B25,2013-08-18 03:36:00,
2013-08-17 22:37:00,66.0,60.0,30.02,SE,129,0.0,6.0,81,0.00,,,0.00,0,WeatherCatV1.15B25,2013-08-18 03:37:00,
2013-08-17 22:38:00,66.0,60.0,30.02,SE,129,2.0,4.0,81,0.00,,,0.00,0,WeatherCatV1.15B25,2013-08-18 03:38:00,
2013-08-17 22:40:00,65.9,60.2,30.02,SE,128,0.0,7.0,82,0.00,,,0.00,0,WeatherCatV1.15B25,2013-08-18 03:40:00,
2013-08-17 22:41:00,65.9,60.2,30.02,SE,128,0.0,2.0,82,0.00,,,0.00,0,WeatherCatV1.15B25,2013-08-18 03:41:00,
2013-08-17 22:42:00,65.9,60.2,30.02,SE,128,5.0,5.0,82,0.00,,,0.00,0,WeatherCatV1.15B25,2013-08-18 03:42:00,
2013-08-17 22:43:00,65.8,60.1,30.02,SE,129,1.0,7.0,82,0.00,,,0.00,0,WeatherCatV1.15B25,2013-08-18 03:43:00,
2013-08-17 22:46:00,65.7,60.0,30.02,ESE,113,0.0,4.0,82,0.00,,,0.00,0,WeatherCatV1.15B25,2013-08-18 03:46:00,
2013-08-17 22:47:00,65.7,60.0,30.02,ESE,114,5.0,5.0,82,0.00,,,0.00,0,WeatherCatV1.15B25,2013-08-18 03:47:00,
2013-08-17 22:48:00,65.6,59.9,30.02,ESE,115,2.0,5.0,82,0.00,,,0.00,0,WeatherCatV1.15B25,2013-08-18 03:48:00,
2013-08-17 22:51:00,65.5,60.2,30.02,ESE,116,2.0,4.0,83,0.00,,,0.00,0,WeatherCatV1.15B25,2013-08-18 03:51:00,
2013-08-17 22:52:00,65.4,60.1,30.02,ESE,114,4.0,4.0,83,0.00,,,0.00,0,WeatherCatV1.15B25,2013-08-18 03:52:00,
2013-08-17 22:53:00,65.4,60.1,30.02,SE,144,4.0,8.0,83,0.00,,,0.00,0,WeatherCatV1.15B25,2013-08-18 03:53:00,
2013-08-17 22:56:00,65.3,60.0,30.02,SSE,157,4.0,5.0,83,0.00,,,0.00,0,WeatherCatV1.15B25,2013-08-18 03:56:00,
2013-08-17 22:57:00,65.2,59.9,30.02,SSE,152,3.0,5.0,83,0.00,,,0.00,0,WeatherCatV1.15B25,2013-08-18 03:57:00,
2013-08-17 22:59:00,65.2,59.9,30.02,ESE,107,0.0,6.0,83,0.00,,,0.00,0,WeatherCatV1.15B25,2013-08-18 03:59:00,
2013-08-17 23:01:00,65.2,59.9,30.02,SSE,160,2.0,3.0,83,0.00,,,0.00,0,WeatherCatV1.15B25,2013-08-18 04:01:00,
2013-08-17 23:06:00,65.1,59.8,30.02,SE,146,2.0,5.0,83,0.00,,,0.00,0,WeatherCatV1.15B25,2013-08-18 04:06:00,
2013-08-17 23:11:00,65.0,59.7,30.03,SE,145,2.0,5.0,83,0.00,,,0.00,0,WeatherCatV1.15B25,2013-08-18 04:11:00,
2013-08-17 23:16:00,64.9,59.6,30.03,SE,144,4.0,4.0,83,0.00,,,0.00,0,WeatherCatV1.15B25,2013-08-18 04:16:00,
2013-08-17 23:17:00,64.9,59.6,30.03,SE,144,2.0,4.0,83,0.00,,,0.00,0,WeatherCatV1.15B25,2013-08-18 04:17:00,
2013-08-17 23:21:00,64.7,59.7,30.03,SSE,151,3.0,5.0,84,0.00,,,0.00,0,WeatherCatV1.15B25,2013-08-18 04:21:00,
2013-08-17 23:22:00,64.7,59.7,30.03,SSE,149,0.0,5.0,84,0.00,,,0.00,0,WeatherCatV1.15B25,2013-08-18 04:22:00,
2013-08-17 23:26:00,64.6,59.7,30.03,SSE,165,0.0,2.0,84,0.00,,,0.00,0,WeatherCatV1.15B25,2013-08-18 04:26:00,
2013-08-17 23:27:00,64.6,59.7,30.03,SSE,165,0.0,2.0,84,0.00,,,0.00,0,WeatherCatV1.15B25,2013-08-18 04:27:00,
2013-08-17 23:31:00,64.5,59.6,30.03,SSE,168,0.0,5.0,84,0.00,,,0.00,0,WeatherCatV1.15B25,2013-08-18 04:31:00,
2013-08-17 23:32:00,64.5,59.6,30.03,SSE,167,3.0,5.0,84,0.00,,,0.00,0,WeatherCatV1.15B25,2013-08-18 04:32:00,
2013-08-17 23:33:00,64.5,59.6,30.03,SE,145,0.0,6.0,84,0.00,,,0.00,0,WeatherCatV1.15B25,2013-08-18 04:33:00,
2013-08-17 23:36:00,64.4,59.5,30.03,SE,146,3.0,5.0,84,0.00,,,0.00,0,WeatherCatV1.15B25,2013-08-18 04:36:00,
2013-08-17 23:37:00,64.4,59.5,30.03,SE,146,1.0,5.0,84,0.00,,,0.00,0,WeatherCatV1.15B25,2013-08-18 04:37:00,
2013-08-17 23:38:00,64.3,59.4,30.03,SE,146,3.0,5.0,84,0.00,,,0.00,0,WeatherCatV1.15B25,2013-08-18 04:38:00,
2013-08-17 23:41:00,64.3,59.4,30.03,SE,139,2.0,6.0,84,0.00,,,0.00,0,WeatherCatV1.15B25,2013-08-18 04:41:00,
2013-08-17 23:42:00,64.3,59.4,30.03,SE,138,0.0,6.0,84,0.00,,,0.00,0,WeatherCatV1.15B25,2013-08-18 04:42:00,
2013-08-17 23:43:00,64.3,59.4,30.03,SE,138,0.0,3.0,84,0.00,,,0.00,0,WeatherCatV1.15B25,2013-08-18 04:43:00,
2013-08-17 23:46:00,64.2,59.6,30.03,SE,138,3.0,4.0,85,0.00,,,0.00,0,WeatherCatV1.15B25,2013-08-18 04:46:00,
2013-08-17 23:47:00,64.1,59.5,30.03,SE,138,1.0,3.0,85,0.00,,,0.00,0,WeatherCatV1.15B25,2013-08-18 04:47:00,
2013-08-17 23:48:00,64.1,59.5,30.03,SE,138,0.0,3.0,85,0.00,,,0.00,0,WeatherCatV1.15B25,2013-08-18 04:48:00,
2013-08-17 23:51:00,64.0,59.4,30.03,SE,138,2.0,5.0,85,0.00,,,0.00,0,WeatherCatV1.15B25,2013-08-18 04:51:00,
2013-08-17 23:52:00,64.0,59.4,30.03,SE,138,1.0,5.0,85,0.00,,,0.00,0,WeatherCatV1.15B25,2013-08-18 04:52:00,
2013-08-17 23:54:00,64.0,59.4,30.03,SE,138,1.0,4.0,85,0.00,,,0.00,0,WeatherCatV1.15B25,2013-08-18 04:54:00,
2013-08-17 23:56:00,63.9,59.3,30.03,SE,138,1.0,3.0,85,0.00,,,0.00,0,WeatherCatV1.15B25,2013-08-18 04:56:00,
2013-08-17 23:57:00,63.8,59.2,30.03,SE,138,0.0,3.0,85,0.00,,,0.00,0,WeatherCatV1.15B25,2013-08-18 04:57:00,
2013-08-17 23:58:00,63.8,59.2,30.03,SE,138,0.0,0.0,85,0.00,,,0.00,0,WeatherCatV1.15B25,2013-08-18 04:58:00,
2013-08-17 23:59:00,63.8,59.2,30.03,SE,138,0.0,2.0,85,0.00,,,0.00,0,WeatherCatV1.15B25,2013-08-18 04:59:00,